Observation data for Palo Duro Canyon State Park Rim on 03/13/2018      Previous  Date       Current Mesonet Observations  Soil Data  Daily Summary Page  Observations in Plain Language
KPD1 130501Z 17007KT 07/M06 A3023 RMK A01 T00671063  RH  039%=      5-min Rain = 0
KPD1 130502Z 17007KT 07/M06 A3023 RMK A01 T00671063  RH  039%=      5-min Rain = 0
KPD1 130503Z 17008KT 07/M06 A3023 RMK A01 T00671063  RH  039%=      5-min Rain = 0
KPD1 130504Z 18009KT 07/M06 A3023 RMK A01 T00671063  RH  039%=      5-min Rain = 0
KPD1 130505Z 17008KT 07/M06 A3023 RMK A01 T00671063  RH  039%=      5-min Rain = 0
KPD1 130506Z 17007KT 07/M06 A3023 RMK A01 T00661064  RH  039%=      5-min Rain = 0
KPD1 130507Z 17008KT 07/M06 A3023 RMK A01 T00661064  RH  039%=      5-min Rain = 0
KPD1 130508Z 17008KT 07/M06 A3023 RMK A01 T00661064  RH  039%=      5-min Rain = 0
KPD1 130509Z 17008KT 07/M06 A3023 RMK A01 T00661064  RH  039%=      5-min Rain = 0
KPD1 130510Z 17008KT 07/M06 A3023 RMK A01 T00651064  RH  039%=      5-min Rain = 0
KPD1 130511Z 17009KT 07/M06 A3023 RMK A01 T00651064  RH  039%=      5-min Rain = 0
KPD1 130512Z 16008KT 07/M06 A3023 RMK A01 T00651064  RH  039%=      5-min Rain = 0
KPD1 130513Z 17007KT 07/M06 A3023 RMK A01 T00651064  RH  039%=      5-min Rain = 0
KPD1 130514Z 17007KT 07/M06 A3023 RMK A01 T00651064  RH  039%=      5-min Rain = 0
KPD1 130515Z 17007KT 07/M06 A3023 RMK A01 T00661064  RH  039%=      5-min Rain = 0
KPD1 130516Z 17008KT 07/M06 A3023 RMK A01 T00661064  RH  039%=      5-min Rain = 0
KPD1 130517Z 17009KT 07/M06 A3023 RMK A01 T00661064  RH  039%=      5-min Rain = 0
KPD1 130518Z 17009KT 07/M07 A3023 RMK A01 T00661065  RH  039%=      5-min Rain = 0
KPD1 130519Z 17008KT 07/M06 A3023 RMK A01 T00661064  RH  039%=      5-min Rain = 0
KPD1 130520Z 17007KT 07/M06 A3023 RMK A01 T00671064  RH  039%=      5-min Rain = 0
KPD1 130521Z 17008KT 07/M07 A3023 RMK A01 T00671065  RH  038%=      5-min Rain = 0
KPD1 130522Z 17008KT 07/M07 A3023 RMK A01 T00671065  RH  039%=      5-min Rain = 0
KPD1 130523Z 18008KT 07/M07 A3023 RMK A01 T00661065  RH  039%=      5-min Rain = 0
KPD1 130524Z 17010KT 07/M07 A3023 RMK A01 T00661066  RH  039%=      5-min Rain = 0
KPD1 130525Z 17008KT 07/M07 A3023 RMK A01 T00661066  RH  039%=      5-min Rain = 0
KPD1 130526Z 18008KT 07/M07 A3023 RMK A01 T00661066  RH  039%=      5-min Rain = 0
KPD1 130527Z 18007KT 07/M07 A3023 RMK A01 T00661066  RH  039%=      5-min Rain = 0
KPD1 130528Z 17009KT 07/M07 A3023 RMK A01 T00661066  RH  039%=      5-min Rain = 0
KPD1 130529Z 18010KT 07/M07 A3023 RMK A01 T00661066  RH  038%=      5-min Rain = 0
KPD1 130530Z 17009KT 07/M07 A3023 RMK A01 T00661066  RH  038%=      5-min Rain = 0
KPD1 130531Z 17010KT 07/M07 A3023 RMK A01 T00661066  RH  038%=      5-min Rain = 0
KPD1 130532Z 17008KT 07/M07 A3023 RMK A01 T00671066  RH  038%=      5-min Rain = 0
KPD1 130533Z 17008KT 07/M07 A3023 RMK A01 T00671066  RH  038%=      5-min Rain = 0
KPD1 130534Z 17009KT 07/M07 A3023 RMK A01 T00671067  RH  038%=      5-min Rain = 0
KPD1 130535Z 17007KT 07/M07 A3023 RMK A01 T00661067  RH  038%=      5-min Rain = 0
KPD1 130536Z 17008KT 07/M07 A3023 RMK A01 T00661067  RH  038%=      5-min Rain = 0
KPD1 130537Z 17006KT 07/M07 A3023 RMK A01 T00651067  RH  038%=      5-min Rain = 0
KPD1 130538Z 17007KT 06/M07 A3023 RMK A01 T00641068  RH  038%=      5-min Rain = 0
KPD1 130539Z 16007KT 06/M07 A3023 RMK A01 T00641068  RH  038%=      5-min Rain = 0
KPD1 130540Z 16008KT 06/M07 A3023 RMK A01 T00641068  RH  038%=      5-min Rain = 0
KPD1 130541Z 16010KT 06/M07 A3023 RMK A01 T00641068  RH  038%=      5-min Rain = 0
KPD1 130542Z 17010KT 06/M07 A3023 RMK A01 T00641068  RH  038%=      5-min Rain = 0
KPD1 130543Z 17009KT 06/M07 A3023 RMK A01 T00641068  RH  038%=      5-min Rain = 0
KPD1 130544Z 16007KT 07/M07 A3023 RMK A01 T00651068  RH  038%=      5-min Rain = 0
KPD1 130545Z 16007KT 06/M07 A3023 RMK A01 T00641068  RH  038%=      5-min Rain = 0
KPD1 130546Z 16008KT 06/M07 A3023 RMK A01 T00631068  RH  038%=      5-min Rain = 0
KPD1 130547Z 17007KT 06/M07 A3023 RMK A01 T00631068  RH  038%=      5-min Rain = 0
KPD1 130548Z 17008KT 06/M07 A3023 RMK A01 T00621068  RH  039%=      5-min Rain = 0
KPD1 130549Z 16009KT 06/M07 A3023 RMK A01 T00621068  RH  039%=      5-min Rain = 0
KPD1 130550Z 17007KT 06/M07 A3023 RMK A01 T00621068  RH  039%=      5-min Rain = 0
KPD1 130551Z 17006KT 06/M07 A3023 RMK A01 T00621068  RH  039%=      5-min Rain = 0
KPD1 130552Z 17009KT 06/M07 A3023 RMK A01 T00611069  RH  039%=      5-min Rain = 0
KPD1 130553Z 16008KT 06/M07 A3023 RMK A01 T00611069  RH  039%=      5-min Rain = 0
KPD1 130554Z 16006KT 06/M07 A3023 RMK A01 T00611069  RH  039%=      5-min Rain = 0
KPD1 130555Z 16007KT 06/M07 A3023 RMK A01 T00611069  RH  039%=      5-min Rain = 0
KPD1 130556Z 16007KT 06/M07 A3023 RMK A01 T00601069  RH  039%=      5-min Rain = 0
KPD1 130557Z 16007KT 06/M07 A3023 RMK A01 T00601069  RH  039%=      5-min Rain = 0
KPD1 130558Z 17008KT 06/M07 A3023 RMK A01 T00601069  RH  039%=      5-min Rain = 0
KPD1 130559Z 16007KT 06/M07 A3023 RMK A01 T00601069  RH  039%=      5-min Rain = 0
KPD1 130600Z 16006KT 06/M07 A3023 RMK A01 T00601069  RH  039%=      5-min Rain = 0
KPD1 130601Z 16006KT 06/M07 A3023 RMK A01 T00601069  RH  039%=      5-min Rain = 0
KPD1 130602Z 17007KT 06/M07 A3023 RMK A01 T00601069  RH  039%=      5-min Rain = 0
KPD1 130603Z 17006KT 06/M07 A3023 RMK A01 T00591069  RH  039%=      5-min Rain = 0
KPD1 130604Z 17007KT 06/M07 A3023 RMK A01 T00581070  RH  039%=      5-min Rain = 0
KPD1 130605Z 17007KT 06/M07 A3023 RMK A01 T00581069  RH  040%=      5-min Rain = 0
KPD1 130606Z 16006KT 06/M07 A3023 RMK A01 T00581069  RH  040%=      5-min Rain = 0
KPD1 130607Z 16006KT 06/M07 A3023 RMK A01 T00581069  RH  040%=      5-min Rain = 0
KPD1 130608Z 17007KT 06/M07 A3023 RMK A01 T00571069  RH  040%=      5-min Rain = 0
KPD1 130609Z 17009KT 06/M07 A3023 RMK A01 T00571069  RH  040%=      5-min Rain = 0
KPD1 130610Z 17009KT 06/M07 A3023 RMK A01 T00581069  RH  040%=      5-min Rain = 0
KPD1 130611Z 17008KT 06/M07 A3023 RMK A01 T00591068  RH  040%=      5-min Rain = 0
KPD1 130612Z 17008KT 06/M07 A3023 RMK A01 T00591069  RH  039%=      5-min Rain = 0
KPD1 130613Z 17009KT 06/M07 A3023 RMK A01 T00591069  RH  039%=      5-min Rain = 0
KPD1 130614Z 17007KT 06/M07 A3023 RMK A01 T00591069  RH  039%=      5-min Rain = 0
KPD1 130615Z 17007KT 06/M07 A3023 RMK A01 T00591069  RH  039%=      5-min Rain = 0
KPD1 130616Z 17008KT 06/M07 A3023 RMK A01 T00591069  RH  039%=      5-min Rain = 0
KPD1 130617Z 17007KT 06/M07 A3023 RMK A01 T00591069  RH  039%=      5-min Rain = 0
KPD1 130618Z 17010KT 06/M07 A3023 RMK A01 T00581069  RH  039%=      5-min Rain = 0
KPD1 130619Z 17007KT 06/M07 A3023 RMK A01 T00581069  RH  040%=      5-min Rain = 0
KPD1 130620Z 17007KT 06/M07 A3023 RMK A01 T00581069  RH  039%=      5-min Rain = 0
KPD1 130621Z 16007KT 06/M07 A3023 RMK A01 T00581069  RH  039%=      5-min Rain = 0
KPD1 130622Z 17008KT 06/M07 A3023 RMK A01 T00571070  RH  039%=      5-min Rain = 0
KPD1 130623Z 17007KT 06/M07 A3023 RMK A01 T00571070  RH  040%=      5-min Rain = 0
KPD1 130624Z 17008KT 06/M07 A3023 RMK A01 T00571070  RH  040%=      5-min Rain = 0
KPD1 130625Z 17007KT 06/M07 A3023 RMK A01 T00571070  RH  040%=      5-min Rain = 0
KPD1 130626Z 17006KT 06/M07 A3023 RMK A01 T00571070  RH  040%=      5-min Rain = 0
KPD1 130627Z 18006KT 06/M07 A3023 RMK A01 T00561070  RH  040%=      5-min Rain = 0
KPD1 130628Z 17007KT 06/M07 A3023 RMK A01 T00561070  RH  040%=      5-min Rain = 0
KPD1 130629Z 17006KT 06/M07 A3023 RMK A01 T00551070  RH  040%=      5-min Rain = 0
KPD1 130630Z 17007KT 05/M07 A3023 RMK A01 T00541071  RH  040%=      5-min Rain = 0
KPD1 130631Z 18007KT 05/M07 A3023 RMK A01 T00541070  RH  040%=      5-min Rain = 0
KPD1 130632Z 17007KT 05/M07 A3023 RMK A01 T00541070  RH  040%=      5-min Rain = 0
KPD1 130633Z 18006KT 05/M07 A3023 RMK A01 T00541070  RH  040%=      5-min Rain = 0
KPD1 130634Z 18008KT 05/M07 A3023 RMK A01 T00541070  RH  040%=      5-min Rain = 0
KPD1 130635Z 17006KT 06/M07 A3023 RMK A01 T00551070  RH  040%=      5-min Rain = 0
KPD1 130636Z 18007KT 06/M07 A3023 RMK A01 T00551070  RH  040%=      5-min Rain = 0
KPD1 130637Z 17007KT 06/M07 A3023 RMK A01 T00551070  RH  040%=      5-min Rain = 0
KPD1 130638Z 17006KT 05/M07 A3023 RMK A01 T00541070  RH  040%=      5-min Rain = 0
KPD1 130639Z 18006KT 05/M07 A3023 RMK A01 T00541071  RH  040%=      5-min Rain = 0
KPD1 130640Z 17007KT 05/M07 A3023 RMK A01 T00531071  RH  040%=      5-min Rain = 0
KPD1 130641Z 17007KT 05/M07 A3023 RMK A01 T00531071  RH  040%=      5-min Rain = 0
KPD1 130642Z 17006KT 05/M07 A3023 RMK A01 T00531070  RH  040%=      5-min Rain = 0
KPD1 130643Z 17006KT 05/M07 A3023 RMK A01 T00531071  RH  040%=      5-min Rain = 0
KPD1 130644Z 17005KT 05/M07 A3023 RMK A01 T00531071  RH  040%=      5-min Rain = 0
KPD1 130645Z 17005KT 05/M07 A3023 RMK A01 T00531071  RH  041%=      5-min Rain = 0
KPD1 130646Z 17007KT 05/M07 A3023 RMK A01 T00521071  RH  041%=      5-min Rain = 0
KPD1 130647Z 17006KT 05/M07 A3023 RMK A01 T00511071  RH  041%=      5-min Rain = 0
KPD1 130648Z 17006KT 05/M07 A3023 RMK A01 T00511071  RH  041%=      5-min Rain = 0
KPD1 130649Z 17006KT 05/M07 A3023 RMK A01 T00511071  RH  041%=      5-min Rain = 0
KPD1 130650Z 17006KT 05/M07 A3023 RMK A01 T00511071  RH  041%=      5-min Rain = 0
KPD1 130651Z 17006KT 05/M07 A3023 RMK A01 T00511071  RH  041%=      5-min Rain = 0
KPD1 130652Z 17006KT 05/M07 A3023 RMK A01 T00511071  RH  041%=      5-min Rain = 0
KPD1 130653Z 17006KT 05/M07 A3023 RMK A01 T00511071  RH  041%=      5-min Rain = 0
KPD1 130654Z 17006KT 05/M07 A3023 RMK A01 T00511071  RH  041%=      5-min Rain = 0
KPD1 130655Z 16006KT 05/M07 A3023 RMK A01 T00501071  RH  041%=      5-min Rain = 0
KPD1 130656Z 17005KT 05/M07 A3023 RMK A01 T00501071  RH  041%=      5-min Rain = 0
KPD1 130657Z 17006KT 05/M07 A3023 RMK A01 T00501071  RH  041%=      5-min Rain = 0
KPD1 130658Z 17006KT 05/M07 A3023 RMK A01 T00491071  RH  041%=      5-min Rain = 0
KPD1 130659Z 17006KT 05/M07 A3023 RMK A01 T00491071  RH  041%=      5-min Rain = 0
KPD1 130700Z 17006KT 05/M07 A3023 RMK A01 T00491071  RH  041%=      5-min Rain = 0
KPD1 130701Z 17005KT 05/M07 A3024 RMK A01 T00491071  RH  041%=      5-min Rain = 0
KPD1 130702Z 17005KT 05/M07 A3024 RMK A01 T00481071  RH  042%=      5-min Rain = 0
KPD1 130703Z 17005KT 05/M07 A3024 RMK A01 T00481072  RH  042%=      5-min Rain = 0
KPD1 130704Z 16005KT 05/M07 A3024 RMK A01 T00481072  RH  042%=      5-min Rain = 0
KPD1 130705Z 15004KT 05/M07 A3024 RMK A01 T00481071  RH  042%=      5-min Rain = 0
KPD1 130706Z 16003KT 05/M07 A3024 RMK A01 T00471072  RH  042%=      5-min Rain = 0
KPD1 130707Z 15005KT 05/M07 A3024 RMK A01 T00461072  RH  042%=      5-min Rain = 0
KPD1 130708Z 16004KT 05/M07 A3024 RMK A01 T00461072  RH  042%=      5-min Rain = 0
KPD1 130709Z 16003KT 05/M07 A3024 RMK A01 T00461072  RH  042%=      5-min Rain = 0
KPD1 130710Z 16003KT 05/M07 A3024 RMK A01 T00451072  RH  042%=      5-min Rain = 0
KPD1 130711Z 16004KT 04/M07 A3024 RMK A01 T00441073  RH  042%=      5-min Rain = 0
KPD1 130712Z 17004KT 04/M07 A3024 RMK A01 T00441072  RH  043%=      5-min Rain = 0
KPD1 130713Z 16004KT 04/M07 A3024 RMK A01 T00431072  RH  043%=      5-min Rain = 0
KPD1 130714Z 16004KT 04/M07 A3024 RMK A01 T00431072  RH  043%=      5-min Rain = 0
KPD1 130715Z 16005KT 04/M07 A3024 RMK A01 T00431072  RH  043%=      5-min Rain = 0
KPD1 130716Z 16004KT 04/M07 A3024 RMK A01 T00431072  RH  043%=      5-min Rain = 0
KPD1 130717Z 16004KT 04/M07 A3024 RMK A01 T00431072  RH  043%=      5-min Rain = 0
KPD1 130718Z 16005KT 04/M07 A3024 RMK A01 T00421072  RH  043%=      5-min Rain = 0
KPD1 130719Z 15004KT 04/M07 A3024 RMK A01 T00421072  RH  043%=      5-min Rain = 0
KPD1 130720Z 15004KT 04/M07 A3024 RMK A01 T00421072  RH  043%=      5-min Rain = 0
KPD1 130721Z 14004KT 04/M07 A3024 RMK A01 T00421072  RH  043%=      5-min Rain = 0
KPD1 130722Z 15004KT 04/M07 A3024 RMK A01 T00421072  RH  043%=      5-min Rain = 0
KPD1 130723Z 15004KT 04/M07 A3024 RMK A01 T00421072  RH  043%=      5-min Rain = 0
KPD1 130724Z 15003KT 04/M07 A3024 RMK A01 T00411072  RH  043%=      5-min Rain = 0
KPD1 130725Z 15003KT 04/M07 A3024 RMK A01 T00401073  RH  044%=      5-min Rain = 0
KPD1 130726Z 15004KT 04/M07 A3024 RMK A01 T00401073  RH  044%=      5-min Rain = 0
KPD1 130727Z 15003KT 04/M07 A3024 RMK A01 T00401072  RH  044%=      5-min Rain = 0
KPD1 130728Z 15004KT 04/M07 A3024 RMK A01 T00391073  RH  044%=      5-min Rain = 0
KPD1 130729Z 16004KT 04/M07 A3024 RMK A01 T00401072  RH  044%=      5-min Rain = 0
KPD1 130730Z 15004KT 04/M07 A3025 RMK A01 T00401072  RH  044%=      5-min Rain = 0
KPD1 130731Z 15004KT 04/M07 A3025 RMK A01 T00391073  RH  044%=      5-min Rain = 0
KPD1 130732Z 16004KT 04/M07 A3025 RMK A01 T00381073  RH  044%=      5-min Rain = 0
KPD1 130733Z 15003KT 04/M07 A3025 RMK A01 T00381073  RH  044%=      5-min Rain = 0
KPD1 130734Z 15004KT 04/M07 A3025 RMK A01 T00381072  RH  044%=      5-min Rain = 0
KPD1 130735Z 15004KT 04/M07 A3025 RMK A01 T00381072  RH  044%=      5-min Rain = 0
KPD1 130736Z 14003KT 04/M07 A3025 RMK A01 T00381072  RH  044%=      5-min Rain = 0
KPD1 130737Z 14003KT 04/M07 A3025 RMK A01 T00381072  RH  044%=      5-min Rain = 0
KPD1 130738Z 14003KT 04/M07 A3025 RMK A01 T00381072  RH  045%=      5-min Rain = 0
KPD1 130739Z 14003KT 04/M07 A3025 RMK A01 T00371072  RH  045%=      5-min Rain = 0
KPD1 130740Z 13004KT 04/M07 A3025 RMK A01 T00371072  RH  045%=      5-min Rain = 0
KPD1 130741Z 13003KT 04/M07 A3025 RMK A01 T00371072  RH  045%=      5-min Rain = 0
KPD1 130742Z 13002KT 04/M07 A3025 RMK A01 T00361073  RH  045%=      5-min Rain = 0
KPD1 130743Z 13003KT 04/M07 A3025 RMK A01 T00351073  RH  045%=      5-min Rain = 0
KPD1 130744Z 14002KT 04/M07 A3025 RMK A01 T00351073  RH  045%=      5-min Rain = 0
KPD1 130745Z 15004KT 04/M07 A3025 RMK A01 T00351073  RH  045%=      5-min Rain = 0
KPD1 130746Z 14003KT 04/M07 A3025 RMK A01 T00351073  RH  045%=      5-min Rain = 0
KPD1 130747Z 16003KT 04/M07 A3025 RMK A01 T00351073  RH  045%=      5-min Rain = 0
KPD1 130748Z 16003KT 03/M07 A3025 RMK A01 T00341073  RH  045%=      5-min Rain = 0
KPD1 130749Z 17003KT 03/M07 A3025 RMK A01 T00341073  RH  045%=      5-min Rain = 0
KPD1 130750Z 17003KT 03/M07 A3025 RMK A01 T00331073  RH  046%=      5-min Rain = 0
KPD1 130751Z 17004KT 03/M07 A3025 RMK A01 T00321074  RH  046%=      5-min Rain = 0
KPD1 130752Z 17003KT 03/M07 A3025 RMK A01 T00321073  RH  046%=      5-min Rain = 0
KPD1 130753Z 18004KT 03/M07 A3025 RMK A01 T00311073  RH  046%=      5-min Rain = 0
KPD1 130754Z 18005KT 03/M07 A3025 RMK A01 T00311074  RH  046%=      5-min Rain = 0
KPD1 130755Z 18004KT 03/M07 A3025 RMK A01 T00301074  RH  046%=      5-min Rain = 0
KPD1 130756Z 18004KT 03/M07 A3025 RMK A01 T00301074  RH  046%=      5-min Rain = 0
KPD1 130757Z 17005KT 03/M07 A3025 RMK A01 T00291074  RH  047%=      5-min Rain = 0
KPD1 130758Z 17004KT 03/M07 A3025 RMK A01 T00291074  RH  047%=      5-min Rain = 0
KPD1 130759Z 17004KT 03/M07 A3025 RMK A01 T00281074  RH  047%=      5-min Rain = 0
KPD1 130800Z 17004KT 03/M07 A3025 RMK A01 T00281074  RH  047%=      5-min Rain = 0
KPD1 130801Z 17004KT 03/M07 A3025 RMK A01 T00281073  RH  047%=      5-min Rain = 0
KPD1 130802Z 17004KT 03/M07 A3025 RMK A01 T00271073  RH  047%=      5-min Rain = 0
KPD1 130803Z 16004KT 03/M07 A3024 RMK A01 T00271073  RH  047%=      5-min Rain = 0
KPD1 130804Z 16004KT 03/M07 A3024 RMK A01 T00271073  RH  047%=      5-min Rain = 0
KPD1 130805Z 16004KT 03/M07 A3024 RMK A01 T00271073  RH  047%=      5-min Rain = 0
KPD1 130806Z 16004KT 03/M07 A3024 RMK A01 T00271074  RH  048%=      5-min Rain = 0
KPD1 130807Z 16004KT 03/M07 A3024 RMK A01 T00271073  RH  048%=      5-min Rain = 0
KPD1 130808Z 16003KT 03/M07 A3024 RMK A01 T00271074  RH  048%=      5-min Rain = 0
KPD1 130809Z 17003KT 03/M07 A3024 RMK A01 T00271074  RH  048%=      5-min Rain = 0
KPD1 130810Z 16003KT 03/M07 A3025 RMK A01 T00261074  RH  048%=      5-min Rain = 0
KPD1 130811Z 17004KT 03/M07 A3025 RMK A01 T00261074  RH  048%=      5-min Rain = 0
KPD1 130812Z 16004KT 03/M07 A3025 RMK A01 T00261073  RH  048%=      5-min Rain = 0
KPD1 130813Z 17004KT 03/M07 A3025 RMK A01 T00261074  RH  048%=      5-min Rain = 0
KPD1 130814Z 17003KT 03/M07 A3025 RMK A01 T00261074  RH  048%=      5-min Rain = 0
KPD1 130815Z 17003KT 03/M07 A3025 RMK A01 T00251074  RH  048%=      5-min Rain = 0
KPD1 130816Z 17003KT 03/M07 A3025 RMK A01 T00251074  RH  048%=      5-min Rain = 0
KPD1 130817Z 16003KT 02/M07 A3025 RMK A01 T00241074  RH  048%=      5-min Rain = 0
KPD1 130818Z 16003KT 02/M07 A3025 RMK A01 T00241074  RH  048%=      5-min Rain = 0
KPD1 130819Z 16003KT 02/M07 A3025 RMK A01 T00231074  RH  049%=      5-min Rain = 0
KPD1 130820Z 16003KT 02/M07 A3025 RMK A01 T00231074  RH  049%=      5-min Rain = 0
KPD1 130821Z 16003KT 02/M07 A3025 RMK A01 T00221074  RH  049%=      5-min Rain = 0
KPD1 130822Z 16003KT 02/M07 A3025 RMK A01 T00221074  RH  049%=      5-min Rain = 0
KPD1 130823Z 15003KT 02/M07 A3025 RMK A01 T00211074  RH  049%=      5-min Rain = 0
KPD1 130824Z 15003KT 02/M07 A3025 RMK A01 T00211074  RH  049%=      5-min Rain = 0
KPD1 130825Z 16003KT 02/M07 A3025 RMK A01 T00201074  RH  049%=      5-min Rain = 0
KPD1 130826Z 16004KT 02/M07 A3025 RMK A01 T00211074  RH  050%=      5-min Rain = 0
KPD1 130827Z 16004KT 02/M07 A3024 RMK A01 T00201074  RH  050%=      5-min Rain = 0
KPD1 130828Z 16004KT 02/M07 A3024 RMK A01 T00201074  RH  049%=      5-min Rain = 0
KPD1 130829Z 16004KT 02/M07 A3025 RMK A01 T00201074  RH  049%=      5-min Rain = 0
KPD1 130830Z 17003KT 02/M08 A3025 RMK A01 T00201075  RH  049%=      5-min Rain = 0
KPD1 130831Z 17003KT 02/M08 A3025 RMK A01 T00191075  RH  050%=      5-min Rain = 0
KPD1 130832Z 17003KT 02/M08 A3025 RMK A01 T00191075  RH  050%=      5-min Rain = 0
KPD1 130833Z 16003KT 02/M08 A3025 RMK A01 T00191075  RH  050%=      5-min Rain = 0
KPD1 130834Z 16003KT 02/M08 A3025 RMK A01 T00191075  RH  050%=      5-min Rain = 0
KPD1 130835Z 16004KT 02/M08 A3025 RMK A01 T00181075  RH  050%=      5-min Rain = 0
KPD1 130836Z 16004KT 02/M08 A3025 RMK A01 T00181075  RH  050%=      5-min Rain = 0
KPD1 130837Z 16004KT 02/M08 A3025 RMK A01 T00181075  RH  050%=      5-min Rain = 0
KPD1 130838Z 16004KT 02/M08 A3025 RMK A01 T00181075  RH  050%=      5-min Rain = 0
KPD1 130839Z 16004KT 02/M08 A3025 RMK A01 T00181075  RH  050%=      5-min Rain = 0
KPD1 130840Z 16003KT 02/M08 A3025 RMK A01 T00181075  RH  050%=      5-min Rain = 0
KPD1 130841Z 16003KT 02/M08 A3025 RMK A01 T00181075  RH  050%=      5-min Rain = 0
KPD1 130842Z 16003KT 02/M08 A3025 RMK A01 T00181075  RH  050%=      5-min Rain = 0
KPD1 130843Z 17003KT 02/M07 A3025 RMK A01 T00181074  RH  050%=      5-min Rain = 0
KPD1 130844Z 17003KT 02/M07 A3025 RMK A01 T00181074  RH  050%=      5-min Rain = 0
KPD1 130845Z 17003KT 02/M07 A3025 RMK A01 T00191074  RH  050%=      5-min Rain = 0
KPD1 130846Z 17003KT 02/M07 A3025 RMK A01 T00191074  RH  050%=      5-min Rain = 0
KPD1 130847Z 18004KT 02/M07 A3025 RMK A01 T00191074  RH  050%=      5-min Rain = 0
KPD1 130848Z 17004KT 02/M07 A3025 RMK A01 T00191074  RH  050%=      5-min Rain = 0
KPD1 130849Z 17003KT 02/M07 A3025 RMK A01 T00201074  RH  050%=      5-min Rain = 0
KPD1 130850Z 17004KT 02/M07 A3025 RMK A01 T00201074  RH  050%=      5-min Rain = 0
KPD1 130851Z 17003KT 02/M08 A3025 RMK A01 T00191075  RH  050%=      5-min Rain = 0
KPD1 130852Z 17003KT 02/M08 A3025 RMK A01 T00191075  RH  050%=      5-min Rain = 0
KPD1 130853Z 17003KT 02/M07 A3025 RMK A01 T00191074  RH  050%=      5-min Rain = 0
KPD1 130854Z 17004KT 02/M08 A3025 RMK A01 T00181075  RH  050%=      5-min Rain = 0
KPD1 130855Z 17003KT 02/M07 A3025 RMK A01 T00181074  RH  050%=      5-min Rain = 0
KPD1 130856Z 17004KT 02/M08 A3025 RMK A01 T00181075  RH  050%=      5-min Rain = 0
KPD1 130857Z 17004KT 02/M07 A3025 RMK A01 T00181074  RH  050%=      5-min Rain = 0
KPD1 130858Z 18004KT 02/M08 A3025 RMK A01 T00181075  RH  050%=      5-min Rain = 0
KPD1 130859Z 18004KT 02/M08 A3025 RMK A01 T00171075  RH  051%=      5-min Rain = 0
KPD1 130900Z 18004KT 02/M08 A3025 RMK A01 T00171075  RH  050%=      5-min Rain = 0
KPD1 130901Z 18004KT 02/M08 A3025 RMK A01 T00171075  RH  051%=      5-min Rain = 0
KPD1 130902Z 17003KT 02/M08 A3025 RMK A01 T00171075  RH  051%=      5-min Rain = 0
KPD1 130903Z 18004KT 02/M07 A3025 RMK A01 T00171074  RH  051%=      5-min Rain = 0
KPD1 130904Z 18004KT 02/M07 A3025 RMK A01 T00171074  RH  051%=      5-min Rain = 0
KPD1 130905Z 18004KT 02/M07 A3025 RMK A01 T00171074  RH  051%=      5-min Rain = 0
KPD1 130906Z 18004KT 02/M08 A3025 RMK A01 T00171075  RH  051%=      5-min Rain = 0
KPD1 130907Z 18004KT 02/M08 A3025 RMK A01 T00171075  RH  051%=      5-min Rain = 0
KPD1 130908Z 18004KT 02/M07 A3025 RMK A01 T00171074  RH  051%=      5-min Rain = 0
KPD1 130909Z 18004KT 02/M07 A3025 RMK A01 T00171074  RH  051%=      5-min Rain = 0
KPD1 130910Z 19004KT 02/M07 A3025 RMK A01 T00161074  RH  051%=      5-min Rain = 0
KPD1 130911Z 19004KT 02/M07 A3025 RMK A01 T00161074  RH  051%=      5-min Rain = 0
KPD1 130912Z 18004KT 02/M07 A3025 RMK A01 T00161074  RH  051%=      5-min Rain = 0
KPD1 130913Z 18004KT 02/M07 A3025 RMK A01 T00161074  RH  051%=      5-min Rain = 0
KPD1 130914Z 18004KT 02/M07 A3025 RMK A01 T00161074  RH  051%=      5-min Rain = 0
KPD1 130915Z 18004KT 02/M07 A3025 RMK A01 T00161074  RH  051%=      5-min Rain = 0
KPD1 130916Z 18004KT 02/M07 A3025 RMK A01 T00161074  RH  051%=      5-min Rain = 0
KPD1 130917Z 18004KT 02/M07 A3025 RMK A01 T00161074  RH  051%=      5-min Rain = 0
KPD1 130918Z 18004KT 02/M07 A3025 RMK A01 T00161074  RH  051%=      5-min Rain = 0
KPD1 130919Z 18004KT 02/M07 A3025 RMK A01 T00161074  RH  051%=      5-min Rain = 0
KPD1 130920Z 18004KT 02/M07 A3025 RMK A01 T00161074  RH  051%=      5-min Rain = 0
KPD1 130921Z 17004KT 02/M08 A3025 RMK A01 T00161075  RH  051%=      5-min Rain = 0
KPD1 130922Z 18004KT 02/M07 A3024 RMK A01 T00161074  RH  051%=      5-min Rain = 0
KPD1 130923Z 18004KT 02/M07 A3024 RMK A01 T00161074  RH  051%=      5-min Rain = 0
KPD1 130924Z 19005KT 02/M08 A3024 RMK A01 T00161075  RH  051%=      5-min Rain = 0
KPD1 130925Z 19004KT 02/M08 A3024 RMK A01 T00161075  RH  051%=      5-min Rain = 0
KPD1 130926Z 18004KT 02/M07 A3024 RMK A01 T00161074  RH  051%=      5-min Rain = 0
KPD1 130927Z 18005KT 02/M08 A3024 RMK A01 T00161075  RH  051%=      5-min Rain = 0
KPD1 130928Z 19004KT 02/M07 A3024 RMK A01 T00161074  RH  051%=      5-min Rain = 0
KPD1 130929Z 19005KT 02/M08 A3024 RMK A01 T00161075  RH  051%=      5-min Rain = 0
KPD1 130930Z 19005KT 02/M07 A3024 RMK A01 T00161074  RH  051%=      5-min Rain = 0
KPD1 130931Z 19006KT 02/M07 A3024 RMK A01 T00161074  RH  051%=      5-min Rain = 0
KPD1 130932Z 19005KT 02/M07 A3024 RMK A01 T00161074  RH  051%=      5-min Rain = 0
KPD1 130933Z 19005KT 02/M07 A3024 RMK A01 T00171074  RH  051%=      5-min Rain = 0
KPD1 130934Z 19005KT 02/M07 A3024 RMK A01 T00181073  RH  051%=      5-min Rain = 0
KPD1 130935Z 19005KT 02/M07 A3024 RMK A01 T00191073  RH  051%=      5-min Rain = 0
KPD1 130936Z 20005KT 02/M07 A3024 RMK A01 T00191073  RH  051%=      5-min Rain = 0
KPD1 130937Z 20006KT 02/M07 A3024 RMK A01 T00191073  RH  050%=      5-min Rain = 0
KPD1 130938Z 20005KT 02/M07 A3024 RMK A01 T00191073  RH  050%=      5-min Rain = 0
KPD1 130939Z 21005KT 02/M07 A3024 RMK A01 T00191073  RH  050%=      5-min Rain = 0
KPD1 130940Z 21005KT 02/M07 A3024 RMK A01 T00191073  RH  050%=      5-min Rain = 0
KPD1 130941Z 20005KT 02/M07 A3024 RMK A01 T00191074  RH  050%=      5-min Rain = 0
KPD1 130942Z 20005KT 02/M07 A3024 RMK A01 T00181074  RH  050%=      5-min Rain = 0
KPD1 130943Z 20005KT 02/M07 A3024 RMK A01 T00181074  RH  050%=      5-min Rain = 0
KPD1 130944Z 20005KT 02/M07 A3024 RMK A01 T00181074  RH  050%=      5-min Rain = 0
KPD1 130945Z 20004KT 02/M07 A3024 RMK A01 T00191074  RH  050%=      5-min Rain = 0
KPD1 130946Z 20004KT 02/M07 A3024 RMK A01 T00191073  RH  050%=      5-min Rain = 0
KPD1 130947Z 20004KT 02/M07 A3024 RMK A01 T00191073  RH  050%=      5-min Rain = 0
KPD1 130948Z 19004KT 02/M07 A3024 RMK A01 T00201073  RH  050%=      5-min Rain = 0
KPD1 130949Z 19004KT 02/M07 A3024 RMK A01 T00201073  RH  050%=      5-min Rain = 0
KPD1 130950Z 18004KT 02/M07 A3024 RMK A01 T00211073  RH  050%=      5-min Rain = 0
KPD1 130951Z 18005KT 02/M07 A3024 RMK A01 T00211073  RH  050%=      5-min Rain = 0
KPD1 130952Z 18004KT 02/M07 A3024 RMK A01 T00211073  RH  050%=      5-min Rain = 0
KPD1 130953Z 18004KT 02/M07 A3024 RMK A01 T00211073  RH  050%=      5-min Rain = 0
KPD1 130954Z 18005KT 02/M07 A3024 RMK A01 T00211072  RH  050%=      5-min Rain = 0
KPD1 130955Z 18005KT 02/M07 A3024 RMK A01 T00221072  RH  050%=      5-min Rain = 0
KPD1 130956Z 18005KT 02/M07 A3024 RMK A01 T00221072  RH  050%=      5-min Rain = 0
KPD1 130957Z 16005KT 02/M07 A3024 RMK A01 T00221072  RH  050%=      5-min Rain = 0
KPD1 130958Z 16004KT 02/M07 A3024 RMK A01 T00221072  RH  050%=      5-min Rain = 0
KPD1 130959Z 16004KT 02/M07 A3024 RMK A01 T00231072  RH  049%=      5-min Rain = 0
KPD1 131000Z 16004KT 02/M07 A3024 RMK A01 T00231073  RH  049%=      5-min Rain = 0
KPD1 131001Z 16004KT 02/M07 A3024 RMK A01 T00221074  RH  049%=      5-min Rain = 0
KPD1 131002Z 16004KT 02/M07 A3024 RMK A01 T00221074  RH  049%=      5-min Rain = 0
KPD1 131003Z 16004KT 02/M07 A3024 RMK A01 T00221074  RH  049%=      5-min Rain = 0
KPD1 131004Z 16004KT 02/M08 A3024 RMK A01 T00211075  RH  049%=      5-min Rain = 0
KPD1 131005Z 16004KT 02/M08 A3024 RMK A01 T00211075  RH  049%=      5-min Rain = 0
KPD1 131006Z 16004KT 02/M08 A3024 RMK A01 T00201076  RH  049%=      5-min Rain = 0
KPD1 131007Z 17004KT 02/M08 A3024 RMK A01 T00201076  RH  049%=      5-min Rain = 0
KPD1 131008Z 17004KT 02/M08 A3024 RMK A01 T00191076  RH  049%=      5-min Rain = 0
KPD1 131009Z 17004KT 02/M08 A3024 RMK A01 T00181076  RH  049%=      5-min Rain = 0
KPD1 131010Z 18004KT 02/M08 A3024 RMK A01 T00181076  RH  050%=      5-min Rain = 0
KPD1 131011Z 18004KT 02/M08 A3024 RMK A01 T00171077  RH  050%=      5-min Rain = 0
KPD1 131012Z 18004KT 02/M08 A3024 RMK A01 T00161076  RH  050%=      5-min Rain = 0
KPD1 131013Z 18004KT 02/M08 A3024 RMK A01 T00161076  RH  050%=      5-min Rain = 0
KPD1 131014Z 17004KT 02/M08 A3024 RMK A01 T00151076  RH  050%=      5-min Rain = 0
KPD1 131015Z 17004KT 02/M08 A3024 RMK A01 T00151077  RH  051%=      5-min Rain = 0
KPD1 131016Z 17005KT 02/M08 A3024 RMK A01 T00151076  RH  051%=      5-min Rain = 0
KPD1 131017Z 16005KT 02/M08 A3024 RMK A01 T00151076  RH  051%=      5-min Rain = 0
KPD1 131018Z 16005KT 01/M08 A3024 RMK A01 T00141076  RH  051%=      5-min Rain = 0
KPD1 131019Z 17005KT 01/M08 A3024 RMK A01 T00141076  RH  051%=      5-min Rain = 0
KPD1 131020Z 17005KT 01/M08 A3024 RMK A01 T00141076  RH  051%=      5-min Rain = 0
KPD1 131021Z 17005KT 01/M08 A3024 RMK A01 T00141076  RH  051%=      5-min Rain = 0
KPD1 131022Z 17005KT 01/M08 A3024 RMK A01 T00141077  RH  051%=      5-min Rain = 0
KPD1 131023Z 17005KT 01/M08 A3024 RMK A01 T00141077  RH  051%=      5-min Rain = 0
KPD1 131024Z 17005KT 01/M08 A3024 RMK A01 T00141077  RH  051%=      5-min Rain = 0
KPD1 131025Z 17005KT 01/M08 A3024 RMK A01 T00141076  RH  051%=      5-min Rain = 0
KPD1 131026Z 17005KT 01/M08 A3024 RMK A01 T00141076  RH  051%=      5-min Rain = 0
KPD1 131027Z 17005KT 01/M08 A3024 RMK A01 T00141075  RH  051%=      5-min Rain = 0
KPD1 131028Z 17005KT 01/M08 A3024 RMK A01 T00141075  RH  051%=      5-min Rain = 0
KPD1 131029Z 17006KT 01/M08 A3024 RMK A01 T00141075  RH  052%=      5-min Rain = 0
KPD1 131030Z 17005KT 01/M08 A3025 RMK A01 T00141075  RH  052%=      5-min Rain = 0
KPD1 131031Z 17006KT 01/M07 A3025 RMK A01 T00141074  RH  052%=      5-min Rain = 0
KPD1 131032Z 17006KT 01/M07 A3025 RMK A01 T00141074  RH  052%=      5-min Rain = 0
KPD1 131033Z 17006KT 01/M07 A3025 RMK A01 T00141074  RH  052%=      5-min Rain = 0
KPD1 131034Z 17005KT 02/M07 A3025 RMK A01 T00151074  RH  052%=      5-min Rain = 0
KPD1 131035Z 17005KT 02/M07 A3025 RMK A01 T00151074  RH  051%=      5-min Rain = 0
KPD1 131036Z 17005KT 02/M07 A3025 RMK A01 T00151074  RH  051%=      5-min Rain = 0
KPD1 131037Z 18005KT 02/M07 A3025 RMK A01 T00161074  RH  051%=      5-min Rain = 0
KPD1 131038Z 18005KT 02/M07 A3025 RMK A01 T00161074  RH  051%=      5-min Rain = 0
KPD1 131039Z 18005KT 02/M07 A3025 RMK A01 T00151074  RH  051%=      5-min Rain = 0
KPD1 131040Z 18005KT 02/M07 A3026 RMK A01 T00151074  RH  051%=      5-min Rain = 0
KPD1 131041Z 18004KT 02/M07 A3026 RMK A01 T00161074  RH  051%=      5-min Rain = 0
KPD1 131042Z 18004KT 02/M07 A3026 RMK A01 T00151074  RH  051%=      5-min Rain = 0
KPD1 131043Z 18004KT 02/M07 A3026 RMK A01 T00151074  RH  051%=      5-min Rain = 0
KPD1 131044Z 17004KT 02/M07 A3026 RMK A01 T00161074  RH  051%=      5-min Rain = 0
KPD1 131045Z 17004KT 02/M07 A3026 RMK A01 T00161074  RH  051%=      5-min Rain = 0
KPD1 131046Z 16004KT 02/M07 A3026 RMK A01 T00151074  RH  051%=      5-min Rain = 0
KPD1 131047Z 15004KT 02/M07 A3026 RMK A01 T00151074  RH  051%=      5-min Rain = 0
KPD1 131048Z 14004KT 02/M07 A3026 RMK A01 T00161074  RH  051%=      5-min Rain = 0
KPD1 131049Z 14004KT 02/M07 A3026 RMK A01 T00161074  RH  051%=      5-min Rain = 0
KPD1 131050Z 14003KT 02/M07 A3026 RMK A01 T00171073  RH  051%=      5-min Rain = 0
KPD1 131051Z 14003KT 02/M07 A3026 RMK A01 T00171073  RH  051%=      5-min Rain = 0
KPD1 131052Z 14003KT 02/M07 A3027 RMK A01 T00171073  RH  051%=      5-min Rain = 0
KPD1 131053Z 13004KT 02/M07 A3027 RMK A01 T00181074  RH  051%=      5-min Rain = 0
KPD1 131054Z 13003KT 02/M07 A3027 RMK A01 T00181073  RH  051%=      5-min Rain = 0
KPD1 131055Z 13003KT 02/M07 A3027 RMK A01 T00181074  RH  050%=      5-min Rain = 0
KPD1 131056Z 13003KT 02/M07 A3027 RMK A01 T00181074  RH  050%=      5-min Rain = 0
KPD1 131057Z 13003KT 02/M07 A3027 RMK A01 T00181074  RH  050%=      5-min Rain = 0
KPD1 131058Z 13002KT 02/M08 A3027 RMK A01 T00181075  RH  050%=      5-min Rain = 0
KPD1 131059Z 13003KT 02/M08 A3027 RMK A01 T00181075  RH  050%=      5-min Rain = 0
KPD1 131100Z 13003KT 02/M08 A3027 RMK A01 T00181075  RH  050%=      5-min Rain = 0
KPD1 131101Z 13003KT 02/M08 A3027 RMK A01 T00181075  RH  050%=      5-min Rain = 0
KPD1 131102Z 13003KT 02/M08 A3027 RMK A01 T00181075  RH  050%=      5-min Rain = 0
KPD1 131103Z 14003KT 02/M08 A3027 RMK A01 T00181075  RH  050%=      5-min Rain = 0
KPD1 131104Z 14003KT 02/M08 A3027 RMK A01 T00181075  RH  050%=      5-min Rain = 0
KPD1 131105Z 15003KT 02/M08 A3027 RMK A01 T00171075  RH  050%=      5-min Rain = 0
KPD1 131106Z 15003KT 02/M08 A3027 RMK A01 T00171075  RH  050%=      5-min Rain = 0
KPD1 131107Z 15003KT 02/M08 A3027 RMK A01 T00161075  RH  051%=      5-min Rain = 0
KPD1 131108Z 15003KT 02/M08 A3027 RMK A01 T00151076  RH  051%=      5-min Rain = 0
KPD1 131109Z 15003KT 01/M08 A3027 RMK A01 T00141076  RH  051%=      5-min Rain = 0
KPD1 131110Z 15003KT 01/M08 A3027 RMK A01 T00141076  RH  051%=      5-min Rain = 0
KPD1 131111Z 15002KT 01/M08 A3027 RMK A01 T00131077  RH  051%=      5-min Rain = 0
KPD1 131112Z 15002KT 01/M08 A3027 RMK A01 T00111077  RH  052%=      5-min Rain = 0
KPD1 131113Z 14002KT 01/M08 A3027 RMK A01 T00101077  RH  052%=      5-min Rain = 0
KPD1 131114Z 14002KT 01/M08 A3027 RMK A01 T00101078  RH  052%=      5-min Rain = 0
KPD1 131115Z 14003KT 01/M08 A3027 RMK A01 T00091078  RH  052%=      5-min Rain = 0
KPD1 131116Z 13002KT 01/M08 A3027 RMK A01 T00091077  RH  052%=      5-min Rain = 0
KPD1 131117Z 14003KT 01/M08 A3027 RMK A01 T00091077  RH  053%=      5-min Rain = 0
KPD1 131118Z 14004KT 01/M08 A3027 RMK A01 T00091076  RH  053%=      5-min Rain = 0
KPD1 131119Z 15004KT 01/M08 A3027 RMK A01 T00091076  RH  053%=      5-min Rain = 0
KPD1 131120Z 15004KT 01/M08 A3027 RMK A01 T00091076  RH  053%=      5-min Rain = 0
KPD1 131121Z 15003KT 01/M08 A3027 RMK A01 T00101076  RH  053%=      5-min Rain = 0
KPD1 131122Z 15004KT 01/M08 A3027 RMK A01 T00101076  RH  053%=      5-min Rain = 0
KPD1 131123Z 15003KT 01/M08 A3027 RMK A01 T00091076  RH  053%=      5-min Rain = 0
KPD1 131124Z 16003KT 01/M08 A3027 RMK A01 T00091076  RH  053%=      5-min Rain = 0
KPD1 131125Z 15003KT 01/M08 A3027 RMK A01 T00081077  RH  053%=      5-min Rain = 0
KPD1 131126Z 15003KT 01/M08 A3027 RMK A01 T00081077  RH  053%=      5-min Rain = 0
KPD1 131127Z 15003KT 01/M08 A3027 RMK A01 T00071077  RH  053%=      5-min Rain = 0
KPD1 131128Z 15003KT 01/M08 A3027 RMK A01 T00071077  RH  054%=      5-min Rain = 0
KPD1 131129Z 15003KT 01/M08 A3027 RMK A01 T00061077  RH  054%=      5-min Rain = 0
KPD1 131130Z 15003KT 01/M08 A3027 RMK A01 T00061077  RH  054%=      5-min Rain = 0
KPD1 131131Z 15003KT 01/M08 A3027 RMK A01 T00061076  RH  054%=      5-min Rain = 0
KPD1 131132Z 15003KT 01/M08 A3027 RMK A01 T00061076  RH  054%=      5-min Rain = 0
KPD1 131133Z 16003KT 01/M08 A3027 RMK A01 T00061076  RH  054%=      5-min Rain = 0
KPD1 131134Z 16003KT 01/M08 A3027 RMK A01 T00061076  RH  054%=      5-min Rain = 0
KPD1 131135Z 16003KT 01/M08 A3027 RMK A01 T00051076  RH  054%=      5-min Rain = 0
KPD1 131136Z 17003KT 01/M08 A3027 RMK A01 T00051076  RH  054%=      5-min Rain = 0
KPD1 131137Z 17003KT 01/M08 A3027 RMK A01 T00051076  RH  054%=      5-min Rain = 0
KPD1 131138Z 17003KT 01/M08 A3027 RMK A01 T00051076  RH  055%=      5-min Rain = 0
KPD1 131139Z 17004KT 01/M08 A3027 RMK A01 T00051076  RH  055%=      5-min Rain = 0
KPD1 131140Z 17003KT 01/M08 A3027 RMK A01 T00051076  RH  055%=      5-min Rain = 0
KPD1 131141Z 17003KT 01/M08 A3027 RMK A01 T00051076  RH  055%=      5-min Rain = 0
KPD1 131142Z 17003KT 01/M08 A3027 RMK A01 T00051075  RH  055%=      5-min Rain = 0
KPD1 131143Z 17003KT 01/M08 A3027 RMK A01 T00051075  RH  055%=      5-min Rain = 0
KPD1 131144Z 17003KT 01/M08 A3027 RMK A01 T00051075  RH  055%=      5-min Rain = 0
KPD1 131145Z 16003KT 01/M08 A3027 RMK A01 T00051075  RH  055%=      5-min Rain = 0
KPD1 131146Z 16003KT 01/M08 A3027 RMK A01 T00051075  RH  055%=      5-min Rain = 0
KPD1 131147Z 15003KT 01/M08 A3027 RMK A01 T00051075  RH  055%=      5-min Rain = 0
KPD1 131148Z 15003KT 01/M07 A3027 RMK A01 T00061074  RH  055%=      5-min Rain = 0
KPD1 131149Z 15003KT 01/M07 A3027 RMK A01 T00061074  RH  055%=      5-min Rain = 0
KPD1 131150Z 15003KT 01/M07 A3027 RMK A01 T00071074  RH  055%=      5-min Rain = 0
KPD1 131151Z 15002KT 01/M07 A3027 RMK A01 T00081073  RH  055%=      5-min Rain = 0
KPD1 131152Z 16002KT 01/M07 A3027 RMK A01 T00091073  RH  054%=      5-min Rain = 0
KPD1 131153Z 16003KT 01/M07 A3027 RMK A01 T00091073  RH  054%=      5-min Rain = 0
KPD1 131154Z 17003KT 01/M07 A3027 RMK A01 T00101073  RH  054%=      5-min Rain = 0
KPD1 131155Z 17003KT 01/M07 A3027 RMK A01 T00101073  RH  054%=      5-min Rain = 0
KPD1 131156Z 17003KT 01/M07 A3027 RMK A01 T00101073  RH  054%=      5-min Rain = 0
KPD1 131157Z 17003KT 01/M07 A3027 RMK A01 T00101073  RH  054%=      5-min Rain = 0
KPD1 131158Z 17003KT 01/M07 A3027 RMK A01 T00101073  RH  054%=      5-min Rain = 0
KPD1 131159Z 17003KT 01/M07 A3028 RMK A01 T00111073  RH  054%=      5-min Rain = 0
KPD1 131200Z 16003KT 01/M07 A3028 RMK A01 T00111073  RH  053%=      5-min Rain = 0
KPD1 131201Z 15003KT 01/M07 A3028 RMK A01 T00111073  RH  053%=      5-min Rain = 0
KPD1 131202Z 15003KT 01/M07 A3028 RMK A01 T00111073  RH  053%=      5-min Rain = 0
KPD1 131203Z 15003KT 01/M07 A3028 RMK A01 T00121072  RH  053%=      5-min Rain = 0
KPD1 131204Z 15003KT 01/M07 A3027 RMK A01 T00121072  RH  053%=      5-min Rain = 0
KPD1 131205Z 15002KT 01/M07 A3027 RMK A01 T00131071  RH  053%=      5-min Rain = 0
KPD1 131206Z 15002KT 01/M07 A3027 RMK A01 T00131072  RH  053%=      5-min Rain = 0
KPD1 131207Z 15002KT 01/M07 A3027 RMK A01 T00141072  RH  053%=      5-min Rain = 0
KPD1 131208Z 15003KT 01/M07 A3027 RMK A01 T00131072  RH  053%=      5-min Rain = 0
KPD1 131209Z 16003KT 01/M07 A3027 RMK A01 T00131072  RH  053%=      5-min Rain = 0
KPD1 131210Z 17003KT 01/M07 A3027 RMK A01 T00141072  RH  053%=      5-min Rain = 0
KPD1 131211Z 17003KT 01/M07 A3027 RMK A01 T00141072  RH  053%=      5-min Rain = 0
KPD1 131212Z 17003KT 01/M07 A3027 RMK A01 T00131072  RH  053%=      5-min Rain = 0
KPD1 131213Z 17003KT 01/M07 A3027 RMK A01 T00121073  RH  053%=      5-min Rain = 0
KPD1 131214Z 17003KT 01/M07 A3027 RMK A01 T00121073  RH  053%=      5-min Rain = 0
KPD1 131215Z 17003KT 01/M07 A3028 RMK A01 T00121072  RH  053%=      5-min Rain = 0
KPD1 131216Z 17003KT 01/M07 A3028 RMK A01 T00121072  RH  053%=      5-min Rain = 0
KPD1 131217Z 16003KT 01/M07 A3028 RMK A01 T00111073  RH  053%=      5-min Rain = 0
KPD1 131218Z 17003KT 01/M07 A3028 RMK A01 T00111073  RH  054%=      5-min Rain = 0
KPD1 131219Z 17003KT 01/M07 A3028 RMK A01 T00111072  RH  054%=      5-min Rain = 0
KPD1 131220Z 17003KT 01/M07 A3028 RMK A01 T00111072  RH  054%=      5-min Rain = 0
KPD1 131221Z 16003KT 01/M07 A3028 RMK A01 T00111072  RH  054%=      5-min Rain = 0
KPD1 131222Z 15004KT 01/M07 A3028 RMK A01 T00111072  RH  054%=      5-min Rain = 0
KPD1 131223Z 16004KT 01/M07 A3028 RMK A01 T00121071  RH  054%=      5-min Rain = 0
KPD1 131224Z 16004KT 01/M07 A3028 RMK A01 T00121070  RH  054%=      5-min Rain = 0
KPD1 131225Z 17003KT 01/M07 A3028 RMK A01 T00131070  RH  054%=      5-min Rain = 0
KPD1 131226Z 17003KT 01/M07 A3028 RMK A01 T00141070  RH  054%=      5-min Rain = 0
KPD1 131227Z 16003KT 01/M07 A3028 RMK A01 T00141070  RH  053%=      5-min Rain = 0
KPD1 131228Z 16003KT 01/M07 A3028 RMK A01 T00141070  RH  053%=      5-min Rain = 0
KPD1 131229Z 16003KT 01/M07 A3029 RMK A01 T00141070  RH  053%=      5-min Rain = 0
KPD1 131230Z 15004KT 01/M07 A3029 RMK A01 T00141070  RH  053%=      5-min Rain = 0
KPD1 131231Z 16003KT 02/M07 A3029 RMK A01 T00151070  RH  053%=      5-min Rain = 0
KPD1 131232Z 16003KT 02/M07 A3029 RMK A01 T00161069  RH  053%=      5-min Rain = 0
KPD1 131233Z 17003KT 02/M07 A3029 RMK A01 T00161070  RH  053%=      5-min Rain = 0
KPD1 131234Z 17003KT 02/M07 A3029 RMK A01 T00161070  RH  053%=      5-min Rain = 0
KPD1 131235Z 16003KT 02/M07 A3029 RMK A01 T00161070  RH  053%=      5-min Rain = 0
KPD1 131236Z 15004KT 02/M07 A3029 RMK A01 T00161070  RH  053%=      5-min Rain = 0
KPD1 131237Z 16003KT 02/M07 A3029 RMK A01 T00171069  RH  053%=      5-min Rain = 0
KPD1 131238Z 16003KT 02/M07 A3029 RMK A01 T00171068  RH  053%=      5-min Rain = 0
KPD1 131239Z 17003KT 02/M07 A3029 RMK A01 T00181068  RH  053%=      5-min Rain = 0
KPD1 131240Z 17003KT 02/M07 A3029 RMK A01 T00181068  RH  053%=      5-min Rain = 0
KPD1 131241Z 17004KT 02/M07 A3029 RMK A01 T00181069  RH  053%=      5-min Rain = 0
KPD1 131242Z 17004KT 02/M07 A3029 RMK A01 T00181069  RH  053%=      5-min Rain = 0
KPD1 131243Z 17004KT 02/M07 A3029 RMK A01 T00181069  RH  052%=      5-min Rain = 0
KPD1 131244Z 17004KT 02/M07 A3029 RMK A01 T00181069  RH  052%=      5-min Rain = 0
KPD1 131245Z 18004KT 02/M07 A3029 RMK A01 T00191068  RH  052%=      5-min Rain = 0
KPD1 131246Z 17005KT 02/M07 A3029 RMK A01 T00201068  RH  052%=      5-min Rain = 0
KPD1 131247Z 17007KT 02/M07 A3029 RMK A01 T00201068  RH  052%=      5-min Rain = 0
KPD1 131248Z 16006KT 02/M07 A3029 RMK A01 T00211067  RH  052%=      5-min Rain = 0
KPD1 131249Z 17004KT 02/M07 A3029 RMK A01 T00221067  RH  052%=      5-min Rain = 0
KPD1 131250Z 17004KT 02/M07 A3029 RMK A01 T00231067  RH  052%=      5-min Rain = 0
KPD1 131251Z 17004KT 02/M07 A3029 RMK A01 T00231067  RH  051%=      5-min Rain = 0
KPD1 131252Z 17004KT 02/M07 A3029 RMK A01 T00231067  RH  051%=      5-min Rain = 0
KPD1 131253Z 17004KT 02/M07 A3029 RMK A01 T00231068  RH  051%=      5-min Rain = 0
KPD1 131254Z 17003KT 02/M07 A3029 RMK A01 T00231068  RH  051%=      5-min Rain = 0
KPD1 131255Z 16004KT 02/M07 A3029 RMK A01 T00231068  RH  051%=      5-min Rain = 0
KPD1 131256Z 15004KT 02/M07 A303 RMK A01 T00231068  RH  051%=      5-min Rain = 0
KPD1 131257Z 16005KT 02/M07 A303 RMK A01 T00231068  RH  051%=      5-min Rain = 0
KPD1 131258Z 17004KT 02/M07 A3029 RMK A01 T00231069  RH  051%=      5-min Rain = 0
KPD1 131259Z 15005KT 02/M07 A3029 RMK A01 T00221069  RH  051%=      5-min Rain = 0
KPD1 131300Z 16005KT 02/M07 A3029 RMK A01 T00221068  RH  051%=      5-min Rain = 0
KPD1 131301Z 16004KT 02/M07 A303 RMK A01 T00221069  RH  051%=      5-min Rain = 0
KPD1 131302Z 16004KT 02/M07 A303 RMK A01 T00221069  RH  051%=      5-min Rain = 0
KPD1 131303Z 16004KT 02/M07 A303 RMK A01 T00221069  RH  051%=      5-min Rain = 0
KPD1 131304Z 16004KT 02/M07 A303 RMK A01 T00221069  RH  051%=      5-min Rain = 0
KPD1 131305Z 15004KT 02/M07 A303 RMK A01 T00211069  RH  051%=      5-min Rain = 0
KPD1 131306Z 15004KT 02/M07 A303 RMK A01 T00211069  RH  051%=      5-min Rain = 0
KPD1 131307Z 15004KT 02/M07 A303 RMK A01 T00211069  RH  051%=      5-min Rain = 0
KPD1 131308Z 15005KT 02/M07 A303 RMK A01 T00211069  RH  051%=      5-min Rain = 0
KPD1 131309Z 16004KT 02/M07 A303 RMK A01 T00211070  RH  051%=      5-min Rain = 0
KPD1 131310Z 16005KT 02/M07 A303 RMK A01 T00211070  RH  051%=      5-min Rain = 0
KPD1 131311Z 15004KT 02/M07 A303 RMK A01 T00211070  RH  051%=      5-min Rain = 0
KPD1 131312Z 15007KT 02/M07 A3031 RMK A01 T00201069  RH  051%=      5-min Rain = 0
KPD1 131313Z 15005KT 02/M07 A3031 RMK A01 T00211069  RH  052%=      5-min Rain = 0
KPD1 131314Z 14005KT 02/M07 A3031 RMK A01 T00211068  RH  051%=      5-min Rain = 0
KPD1 131315Z 15003KT 02/M07 A3031 RMK A01 T00221068  RH  051%=      5-min Rain = 0
KPD1 131316Z 14003KT 02/M07 A3031 RMK A01 T00221068  RH  051%=      5-min Rain = 0
KPD1 131317Z 14004KT 02/M07 A3031 RMK A01 T00221069  RH  051%=      5-min Rain = 0
KPD1 131318Z 14004KT 02/M07 A3031 RMK A01 T00221069  RH  051%=      5-min Rain = 0
KPD1 131319Z 14004KT 02/M07 A3031 RMK A01 T00231069  RH  051%=      5-min Rain = 0
KPD1 131320Z 15004KT 02/M07 A3031 RMK A01 T00231069  RH  051%=      5-min Rain = 0
KPD1 131321Z 15005KT 02/M07 A3031 RMK A01 T00231069  RH  051%=      5-min Rain = 0
KPD1 131322Z 15004KT 02/M07 A3031 RMK A01 T00231069  RH  051%=      5-min Rain = 0
KPD1 131323Z 15004KT 02/M07 A3031 RMK A01 T00241068  RH  051%=      5-min Rain = 0
KPD1 131324Z 14005KT 02/M07 A3031 RMK A01 T00241069  RH  051%=      5-min Rain = 0
KPD1 131325Z 14005KT 02/M07 A3031 RMK A01 T00241069  RH  051%=      5-min Rain = 0
KPD1 131326Z 15004KT 02/M07 A3031 RMK A01 T00241068  RH  051%=      5-min Rain = 0
KPD1 131327Z 15003KT 02/M07 A3031 RMK A01 T00241068  RH  051%=      5-min Rain = 0
KPD1 131328Z 14004KT 02/M07 A3031 RMK A01 T00241068  RH  051%=      5-min Rain = 0
KPD1 131329Z 15004KT 02/M07 A3031 RMK A01 T00241069  RH  051%=      5-min Rain = 0
KPD1 131330Z 15004KT 02/M07 A3031 RMK A01 T00231069  RH  051%=      5-min Rain = 0
KPD1 131331Z 15003KT 02/M07 A3031 RMK A01 T00231069  RH  051%=      5-min Rain = 0
KPD1 131332Z 15004KT 02/M07 A3031 RMK A01 T00231069  RH  051%=      5-min Rain = 0
KPD1 131333Z 14003KT 02/M07 A3031 RMK A01 T00231069  RH  051%=      5-min Rain = 0
KPD1 131334Z 14003KT 02/M07 A3031 RMK A01 T00231069  RH  051%=      5-min Rain = 0
KPD1 131335Z 12004KT 02/M07 A3032 RMK A01 T00231069  RH  051%=      5-min Rain = 0
KPD1 131336Z 14003KT 02/M07 A3032 RMK A01 T00231069  RH  051%=      5-min Rain = 0
KPD1 131337Z 14004KT 02/M07 A3032 RMK A01 T00231069  RH  051%=      5-min Rain = 0
KPD1 131338Z 14003KT 02/M07 A3032 RMK A01 T00221069  RH  051%=      5-min Rain = 0
KPD1 131339Z 14003KT 02/M07 A3032 RMK A01 T00221069  RH  051%=      5-min Rain = 0
KPD1 131340Z 15003KT 02/M07 A3032 RMK A01 T00221069  RH  051%=      5-min Rain = 0
KPD1 131341Z 13003KT 02/M07 A3032 RMK A01 T00221069  RH  051%=      5-min Rain = 0
KPD1 131342Z 14004KT 02/M07 A3032 RMK A01 T00221069  RH  051%=      5-min Rain = 0
KPD1 131343Z 14004KT 02/M07 A3032 RMK A01 T00221068  RH  051%=      5-min Rain = 0
KPD1 131344Z 13004KT 02/M07 A3032 RMK A01 T00221069  RH  051%=      5-min Rain = 0
KPD1 131345Z 12003KT 02/M07 A3032 RMK A01 T00221069  RH  051%=      5-min Rain = 0
KPD1 131346Z 11003KT 02/M07 A3032 RMK A01 T00221069  RH  051%=      5-min Rain = 0
KPD1 131347Z 11004KT 02/M07 A3032 RMK A01 T00221069  RH  051%=      5-min Rain = 0
KPD1 131348Z 11004KT 02/M07 A3032 RMK A01 T00221069  RH  051%=      5-min Rain = 0
KPD1 131349Z 11005KT 02/M07 A3032 RMK A01 T00221068  RH  051%=      5-min Rain = 0
KPD1 131350Z 10004KT 02/M07 A3032 RMK A01 T00221068  RH  051%=      5-min Rain = 0
KPD1 131351Z 11005KT 02/M07 A3032 RMK A01 T00221068  RH  051%=      5-min Rain = 0
KPD1 131352Z 11003KT 02/M07 A3032 RMK A01 T00221068  RH  051%=      5-min Rain = 0
KPD1 131353Z 11004KT 02/M07 A3033 RMK A01 T00221068  RH  051%=      5-min Rain = 0
KPD1 131354Z 12003KT 02/M07 A3033 RMK A01 T00221068  RH  051%=      5-min Rain = 0
KPD1 131355Z 12004KT 02/M07 A3033 RMK A01 T00221068  RH  051%=      5-min Rain = 0
KPD1 131356Z 12004KT 02/M07 A3033 RMK A01 T00221068  RH  051%=      5-min Rain = 0
KPD1 131357Z 13004KT 02/M07 A3033 RMK A01 T00231068  RH  051%=      5-min Rain = 0
KPD1 131358Z 12004KT 02/M07 A3033 RMK A01 T00241067  RH  051%=      5-min Rain = 0
KPD1 131359Z 13005KT 02/M07 A3033 RMK A01 T00241066  RH  051%=      5-min Rain = 0
KPD1 131400Z 13004KT 03/M07 A3033 RMK A01 T00251066  RH  051%=      5-min Rain = 0
KPD1 131401Z 13004KT 03/M07 A3033 RMK A01 T00251066  RH  051%=      5-min Rain = 0
KPD1 131402Z 12005KT 03/M07 A3033 RMK A01 T00251066  RH  051%=      5-min Rain = 0
KPD1 131403Z 13004KT 03/M07 A3033 RMK A01 T00261066  RH  051%=      5-min Rain = 0
KPD1 131404Z 13004KT 03/M07 A3033 RMK A01 T00261066  RH  051%=      5-min Rain = 0
KPD1 131405Z 14006KT 03/M07 A3033 RMK A01 T00261066  RH  051%=      5-min Rain = 0
KPD1 131406Z 13004KT 03/M07 A3033 RMK A01 T00271065  RH  051%=      5-min Rain = 0
KPD1 131407Z 12005KT 03/M07 A3033 RMK A01 T00271065  RH  051%=      5-min Rain = 0
KPD1 131408Z 13005KT 03/M07 A3033 RMK A01 T00271066  RH  051%=      5-min Rain = 0
KPD1 131409Z 13005KT 03/M07 A3033 RMK A01 T00271065  RH  051%=      5-min Rain = 0
KPD1 131410Z 12005KT 03/M07 A3033 RMK A01 T00271065  RH  051%=      5-min Rain = 0
KPD1 131411Z 11005KT 03/M07 A3034 RMK A01 T00271065  RH  051%=      5-min Rain = 0
KPD1 131412Z 12005KT 03/M07 A3034 RMK A01 T00271066  RH  051%=      5-min Rain = 0
KPD1 131413Z 13006KT 03/M07 A3034 RMK A01 T00271065  RH  051%=      5-min Rain = 0
KPD1 131414Z 13006KT 03/M07 A3034 RMK A01 T00271066  RH  051%=      5-min Rain = 0
KPD1 131415Z 13006KT 03/M07 A3034 RMK A01 T00271066  RH  051%=      5-min Rain = 0
KPD1 131416Z 13006KT 03/M07 A3034 RMK A01 T00261066  RH  051%=      5-min Rain = 0
KPD1 131417Z 13004KT 03/M07 A3034 RMK A01 T00261066  RH  051%=      5-min Rain = 0
KPD1 131418Z 14005KT 03/M07 A3034 RMK A01 T00261066  RH  051%=      5-min Rain = 0
KPD1 131419Z 13006KT 03/M07 A3034 RMK A01 T00261066  RH  051%=      5-min Rain = 0
KPD1 131420Z 12004KT 03/M07 A3034 RMK A01 T00261066  RH  051%=      5-min Rain = 0
KPD1 131421Z 12004KT 03/M07 A3034 RMK A01 T00261065  RH  051%=      5-min Rain = 0
KPD1 131422Z 12004KT 03/M07 A3034 RMK A01 T00261065  RH  051%=      5-min Rain = 0
KPD1 131423Z 13005KT 03/M07 A3034 RMK A01 T00271065  RH  051%=      5-min Rain = 0
KPD1 131424Z 12004KT 03/M07 A3034 RMK A01 T00281065  RH  051%=      5-min Rain = 0
KPD1 131425Z 13006KT 03/M07 A3034 RMK A01 T00271065  RH  051%=      5-min Rain = 0
KPD1 131426Z 13005KT 03/M07 A3034 RMK A01 T00271065  RH  051%=      5-min Rain = 0
KPD1 131427Z 13005KT 03/M07 A3034 RMK A01 T00271065  RH  051%=      5-min Rain = 0
KPD1 131428Z 13005KT 03/M07 A3034 RMK A01 T00271065  RH  051%=      5-min Rain = 0
KPD1 131429Z 13005KT 03/M07 A3034 RMK A01 T00271066  RH  051%=      5-min Rain = 0
KPD1 131430Z 13003KT 03/M07 A3034 RMK A01 T00261066  RH  051%=      5-min Rain = 0
KPD1 131431Z 14005KT 03/M07 A3034 RMK A01 T00261065  RH  051%=      5-min Rain = 0
KPD1 131432Z 14006KT 03/M07 A3034 RMK A01 T00271065  RH  051%=      5-min Rain = 0
KPD1 131433Z 13005KT 03/M07 A3034 RMK A01 T00271066  RH  051%=      5-min Rain = 0
KPD1 131434Z 14004KT 03/M07 A3034 RMK A01 T00271066  RH  051%=      5-min Rain = 0
KPD1 131435Z 14005KT 03/M07 A3034 RMK A01 T00281065  RH  051%=      5-min Rain = 0
KPD1 131436Z 14007KT 03/M06 A3034 RMK A01 T00291064  RH  050%=      5-min Rain = 0
KPD1 131437Z 13006KT 03/M07 A3034 RMK A01 T00291065  RH  050%=      5-min Rain = 0
KPD1 131438Z 13007KT 03/M06 A3034 RMK A01 T00291064  RH  050%=      5-min Rain = 0
KPD1 131439Z 14005KT 03/M07 A3034 RMK A01 T00291065  RH  050%=      5-min Rain = 0
KPD1 131440Z 13006KT 03/M07 A3034 RMK A01 T00291065  RH  050%=      5-min Rain = 0
KPD1 131441Z 13005KT 03/M06 A3034 RMK A01 T00301064  RH  050%=      5-min Rain = 0
KPD1 131442Z 13005KT 03/M06 A3034 RMK A01 T00301064  RH  050%=      5-min Rain = 0
KPD1 131443Z 13007KT 03/M06 A3034 RMK A01 T00311064  RH  050%=      5-min Rain = 0
KPD1 131444Z 13006KT 03/M06 A3034 RMK A01 T00311064  RH  050%=      5-min Rain = 0
KPD1 131445Z 14004KT 03/M06 A3034 RMK A01 T00311064  RH  050%=      5-min Rain = 0
KPD1 131446Z 16006KT 03/M06 A3034 RMK A01 T00321064  RH  049%=      5-min Rain = 0
KPD1 131447Z 16005KT 03/M06 A3034 RMK A01 T00321064  RH  049%=      5-min Rain = 0
KPD1 131448Z 16005KT 03/M06 A3034 RMK A01 T00331064  RH  049%=      5-min Rain = 0
KPD1 131449Z 16004KT 03/M06 A3034 RMK A01 T00331064  RH  049%=      5-min Rain = 0
KPD1 131450Z 14004KT 03/M06 A3034 RMK A01 T00331063  RH  049%=      5-min Rain = 0
KPD1 131451Z 15004KT 04/M06 A3034 RMK A01 T00351063  RH  049%=      5-min Rain = 0
KPD1 131452Z 14004KT 04/M06 A3034 RMK A01 T00351063  RH  049%=      5-min Rain = 0
KPD1 131453Z 14003KT 04/M06 A3034 RMK A01 T00361063  RH  048%=      5-min Rain = 0
KPD1 131454Z 16003KT 04/M06 A3034 RMK A01 T00391060  RH  048%=      5-min Rain = 0
KPD1 131455Z 15006KT 04/M06 A3034 RMK A01 T00431059  RH  048%=      5-min Rain = 0
KPD1 131456Z 13006KT 05/M06 A3034 RMK A01 T00451059  RH  046%=      5-min Rain = 0
KPD1 131457Z 12006KT 05/M06 A3034 RMK A01 T00481060  RH  046%=      5-min Rain = 0
KPD1 131458Z 13005KT 05/M06 A3034 RMK A01 T00491061  RH  045%=      5-min Rain = 0
KPD1 131459Z 13005KT 05/M06 A3034 RMK A01 T00491061  RH  045%=      5-min Rain = 0
KPD1 131500Z 16005KT 05/M06 A3034 RMK A01 T00491061  RH  045%=      5-min Rain = 0
KPD1 131501Z 15006KT 05/M06 A3034 RMK A01 T00501061  RH  044%=      5-min Rain = 0
KPD1 131502Z 15006KT 05/M06 A3034 RMK A01 T00511061  RH  044%=      5-min Rain = 0
KPD1 131503Z 13005KT 05/M06 A3034 RMK A01 T00521061  RH  044%=      5-min Rain = 0
KPD1 131504Z 15006KT 05/M06 A3034 RMK A01 T00521062  RH  044%=      5-min Rain = 0
KPD1 131505Z 15004KT 05/M06 A3034 RMK A01 T00521061  RH  044%=      5-min Rain = 0
KPD1 131506Z 16006KT 05/M06 A3034 RMK A01 T00541060  RH  044%=      5-min Rain = 0
KPD1 131507Z 16007KT 05/M06 A3034 RMK A01 T00541061  RH  043%=      5-min Rain = 0
KPD1 131508Z 17005KT 06/M06 A3034 RMK A01 T00551061  RH  043%=      5-min Rain = 0
KPD1 131509Z 15004KT 06/M06 A3034 RMK A01 T00551061  RH  043%=      5-min Rain = 0
KPD1 131510Z 15006KT 06/M06 A3034 RMK A01 T00561061  RH  043%=      5-min Rain = 0
KPD1 131511Z 16007KT 06/M06 A3034 RMK A01 T00561060  RH  043%=      5-min Rain = 0
KPD1 131512Z 16007KT 06/M06 A3034 RMK A01 T00571060  RH  043%=      5-min Rain = 0
KPD1 131513Z 15007KT 06/M06 A3034 RMK A01 T00571060  RH  043%=      5-min Rain = 0
KPD1 131514Z 15007KT 06/M06 A3034 RMK A01 T00581060  RH  042%=      5-min Rain = 0
KPD1 131515Z 15007KT 06/M06 A3034 RMK A01 T00581060  RH  042%=      5-min Rain = 0
KPD1 131516Z 15006KT 06/M06 A3034 RMK A01 T00591060  RH  042%=      5-min Rain = 0
KPD1 131517Z 15007KT 06/M06 A3034 RMK A01 T00601059  RH  042%=      5-min Rain = 0
KPD1 131518Z 17008KT 06/M06 A3034 RMK A01 T00611059  RH  042%=      5-min Rain = 0
KPD1 131519Z 17008KT 06/M06 A3034 RMK A01 T00641057  RH  041%=      5-min Rain = 0
KPD1 131520Z 17008KT 07/M06 A3034 RMK A01 T00661058  RH  041%=      5-min Rain = 0
KPD1 131521Z 15009KT 07/M06 A3034 RMK A01 T00661059  RH  041%=      5-min Rain = 0
KPD1 131522Z 15010KT 07/M06 A3034 RMK A01 T00661059  RH  040%=      5-min Rain = 0
KPD1 131523Z 16012KT 07/M06 A3034 RMK A01 T00661061  RH  040%=      5-min Rain = 0
KPD1 131524Z 15010KT 06/M06 A3034 RMK A01 T00631063  RH  040%=      5-min Rain = 0
KPD1 131525Z 15007KT 06/M06 A3034 RMK A01 T00611062  RH  041%=      5-min Rain = 0
KPD1 131526Z 15010G15KT 06/M06 A3034 RMK A01 T00631060  RH  041%=      5-min Rain = 0
KPD1 131527Z 15008KT 07/M06 A3034 RMK A01 T00651059  RH  041%=      5-min Rain = 0
KPD1 131528Z 15011KT 07/M06 A3034 RMK A01 T00671059  RH  040%=      5-min Rain = 0
KPD1 131529Z 15010KT 07/M06 A3034 RMK A01 T00661061  RH  040%=      5-min Rain = 0
KPD1 131530Z 16010KT 07/M06 A3034 RMK A01 T00661061  RH  040%=      5-min Rain = 0
KPD1 131531Z 16010KT 07/M06 A3034 RMK A01 T00651061  RH  040%=      5-min Rain = 0
KPD1 131532Z 15010KT 07/M06 A3035 RMK A01 T00651061  RH  040%=      5-min Rain = 0
KPD1 131533Z 16008KT 07/M06 A3035 RMK A01 T00651061  RH  040%=      5-min Rain = 0
KPD1 131534Z 16010KT 07/M06 A3035 RMK A01 T00651061  RH  040%=      5-min Rain = 0
KPD1 131535Z 15008KT 06/M06 A3035 RMK A01 T00641062  RH  040%=      5-min Rain = 0
KPD1 131536Z 15008KT 06/M06 A3035 RMK A01 T00631062  RH  040%=      5-min Rain = 0
KPD1 131537Z 16008KT 07/M06 A3035 RMK A01 T00651060  RH  040%=      5-min Rain = 0
KPD1 131538Z 16008KT 07/M06 A3035 RMK A01 T00661060  RH  040%=      5-min Rain = 0
KPD1 131539Z 16008KT 07/M06 A3035 RMK A01 T00671061  RH  040%=      5-min Rain = 0
KPD1 131540Z 15008KT 07/M06 A3035 RMK A01 T00661062  RH  040%=      5-min Rain = 0
KPD1 131541Z 15008KT 07/M06 A3035 RMK A01 T00661061  RH  040%=      5-min Rain = 0
KPD1 131542Z 15008KT 07/M06 A3035 RMK A01 T00671061  RH  040%=      5-min Rain = 0
KPD1 131543Z 15009KT 07/M06 A3035 RMK A01 T00681061  RH  039%=      5-min Rain = 0
KPD1 131544Z 17007KT 07/M06 A3035 RMK A01 T00691061  RH  039%=      5-min Rain = 0
KPD1 131545Z 17007KT 07/M06 A3036 RMK A01 T00691061  RH  039%=      5-min Rain = 0
KPD1 131546Z 16008KT 07/M06 A3036 RMK A01 T00691061  RH  039%=      5-min Rain = 0
KPD1 131547Z 16007KT 07/M06 A3036 RMK A01 T00661064  RH  039%=      5-min Rain = 0
KPD1 131548Z 14007KT 07/M06 A3036 RMK A01 T00651063  RH  039%=      5-min Rain = 0
KPD1 131549Z 13007KT 06/M06 A3036 RMK A01 T00631064  RH  040%=      5-min Rain = 0
KPD1 131550Z 15007KT 06/M06 A3036 RMK A01 T00611064  RH  040%=      5-min Rain = 0
KPD1 131551Z 16006KT 06/M06 A3036 RMK A01 T00611064  RH  041%=      5-min Rain = 0
KPD1 131552Z 16006KT 06/M06 A3036 RMK A01 T00611063  RH  040%=      5-min Rain = 0
KPD1 131553Z 15006KT 06/M06 A3036 RMK A01 T00621062  RH  040%=      5-min Rain = 0
KPD1 131554Z 15006KT 06/M06 A3036 RMK A01 T00641061  RH  040%=      5-min Rain = 0
KPD1 131555Z 15005KT 07/M06 A3036 RMK A01 T00661061  RH  040%=      5-min Rain = 0
KPD1 131556Z 15006KT 07/M06 A3036 RMK A01 T00681060  RH  039%=      5-min Rain = 0
KPD1 131557Z 15008KT 07/M06 A3036 RMK A01 T00721059  RH  039%=      5-min Rain = 0
KPD1 131558Z 16006KT 07/M06 A3036 RMK A01 T00741060  RH  038%=      5-min Rain = 0
KPD1 131559Z 16005KT 07/M06 A3036 RMK A01 T00741061  RH  038%=      5-min Rain = 0
KPD1 131600Z 14005KT 08/M06 A3036 RMK A01 T00751060  RH  038%=      5-min Rain = 0
KPD1 131601Z 12005KT 08/M06 A3036 RMK A01 T00771060  RH  037%=      5-min Rain = 0
KPD1 131602Z 15006KT 08/M06 A3036 RMK A01 T00771060  RH  037%=      5-min Rain = 0
KPD1 131603Z 15006KT 08/M06 A3036 RMK A01 T00801059  RH  037%=      5-min Rain = 0
KPD1 131604Z 16007KT 08/M06 A3036 RMK A01 T00791061  RH  036%=      5-min Rain = 0
KPD1 131605Z 16004G9KT 08/M06 A3036 RMK A01 T00811059  RH  037%=      5-min Rain = 0
KPD1 131606Z 16007KT 08/M06 A3036 RMK A01 T00841058  RH  036%=      5-min Rain = 0
KPD1 131607Z 15006KT 09/M06 A3036 RMK A01 T00851058  RH  036%=      5-min Rain = 0
KPD1 131608Z 15007KT 09/M06 A3036 RMK A01 T00861059  RH  035%=      5-min Rain = 0
KPD1 131609Z 14008KT 09/M06 A3036 RMK A01 T00861059  RH  035%=      5-min Rain = 0
KPD1 131610Z 15007G12KT 08/M06 A3036 RMK A01 T00841062  RH  035%=      5-min Rain = 0
KPD1 131611Z 16006KT 08/M06 A3036 RMK A01 T00831061  RH  036%=      5-min Rain = 0
KPD1 131612Z 17008KT 08/M06 A3036 RMK A01 T00821061  RH  036%=      5-min Rain = 0
KPD1 131613Z 15007KT 08/M06 A3036 RMK A01 T00821061  RH  036%=      5-min Rain = 0
KPD1 131614Z 17009KT 08/M06 A3036 RMK A01 T00801063  RH  036%=      5-min Rain = 0
KPD1 131615Z 15008KT 08/M06 A3036 RMK A01 T00791061  RH  036%=      5-min Rain = 0
KPD1 131616Z 15009KT 08/M06 A3036 RMK A01 T00791061  RH  036%=      5-min Rain = 0
KPD1 131617Z 15009KT 08/M06 A3036 RMK A01 T00821059  RH  036%=      5-min Rain = 0
KPD1 131618Z 16008KT 08/M06 A3036 RMK A01 T00831061  RH  036%=      5-min Rain = 0
KPD1 131619Z 15007KT 08/M06 A3036 RMK A01 T00801062  RH  036%=      5-min Rain = 0
KPD1 131620Z 15008KT 08/M06 A3036 RMK A01 T00791062  RH  036%=      5-min Rain = 0
KPD1 131621Z 14011KT 08/M06 A3036 RMK A01 T00801061  RH  036%=      5-min Rain = 0
KPD1 131622Z 15010KT 08/M06 A3036 RMK A01 T00821060  RH  036%=      5-min Rain = 0
KPD1 131623Z 15009KT 08/M06 A3036 RMK A01 T00811061  RH  036%=      5-min Rain = 0
KPD1 131624Z 15008KT 08/M06 A3036 RMK A01 T00821060  RH  036%=      5-min Rain = 0
KPD1 131625Z 16010KT 08/M06 A3036 RMK A01 T00831060  RH  036%=      5-min Rain = 0
KPD1 131626Z 17011KT 08/M06 A3036 RMK A01 T00821062  RH  036%=      5-min Rain = 0
KPD1 131627Z 16010KT 08/M06 A3036 RMK A01 T00801061  RH  036%=      5-min Rain = 0
KPD1 131628Z 14010KT 08/M06 A3036 RMK A01 T00811060  RH  036%=      5-min Rain = 0
KPD1 131629Z 16009KT 08/M06 A3036 RMK A01 T00831060  RH  036%=      5-min Rain = 0
KPD1 131630Z 16009KT 08/M06 A3036 RMK A01 T00831060  RH  036%=      5-min Rain = 0
KPD1 131631Z 15008KT 08/M06 A3036 RMK A01 T00821061  RH  036%=      5-min Rain = 0
KPD1 131632Z 16011KT 08/M06 A3036 RMK A01 T00831060  RH  036%=      5-min Rain = 0
KPD1 131633Z 17008KT 08/M06 A3036 RMK A01 T00821061  RH  036%=      5-min Rain = 0
KPD1 131634Z 16008KT 08/M06 A3036 RMK A01 T00821061  RH  036%=      5-min Rain = 0
KPD1 131635Z 16010KT 08/M06 A3036 RMK A01 T00821060  RH  036%=      5-min Rain = 0
KPD1 131636Z 16010KT 08/M06 A3036 RMK A01 T00811061  RH  036%=      5-min Rain = 0
KPD1 131637Z 15008KT 08/M06 A3036 RMK A01 T00811061  RH  036%=      5-min Rain = 0
KPD1 131638Z 14007KT 08/M06 A3036 RMK A01 T00821060  RH  036%=      5-min Rain = 0
KPD1 131639Z 14006KT 08/M06 A3036 RMK A01 T00831060  RH  036%=      5-min Rain = 0
KPD1 131640Z 15007KT 08/M06 A3036 RMK A01 T00841060  RH  035%=      5-min Rain = 0
KPD1 131641Z 15010KT 09/M06 A3036 RMK A01 T00861058  RH  036%=      5-min Rain = 0
KPD1 131642Z 14010KT 09/M06 A3036 RMK A01 T00871060  RH  035%=      5-min Rain = 0
KPD1 131643Z 14008KT 09/M06 A3036 RMK A01 T00871060  RH  035%=      5-min Rain = 0
KPD1 131644Z 15007KT 09/M06 A3036 RMK A01 T00891057  RH  035%=      5-min Rain = 0
KPD1 131645Z 15005KT 09/M06 A3036 RMK A01 T00911058  RH  034%=      5-min Rain = 0
KPD1 131646Z 15011KT 09/M06 A3036 RMK A01 T00921058  RH  034%=      5-min Rain = 0
KPD1 131647Z 15010KT 09/M06 A3036 RMK A01 T00921060  RH  034%=      5-min Rain = 0
KPD1 131648Z 14008KT 09/M06 A3036 RMK A01 T00911060  RH  034%=      5-min Rain = 0
KPD1 131649Z 16007KT 09/M06 A3036 RMK A01 T00911059  RH  034%=      5-min Rain = 0
KPD1 131650Z 15008KT 09/M06 A3036 RMK A01 T00921058  RH  034%=      5-min Rain = 0
KPD1 131651Z 15009KT 09/M06 A3036 RMK A01 T00941058  RH  034%=      5-min Rain = 0
KPD1 131652Z 15009KT 09/M06 A3036 RMK A01 T00941059  RH  033%=      5-min Rain = 0
KPD1 131653Z 14009KT 09/M06 A3036 RMK A01 T00931060  RH  033%=      5-min Rain = 0
KPD1 131654Z 15008KT 09/M06 A3036 RMK A01 T00921060  RH  034%=      5-min Rain = 0
KPD1 131655Z 15009KT 09/M06 A3036 RMK A01 T00941058  RH  034%=      5-min Rain = 0
KPD1 131656Z 13007KT 10/M06 A3036 RMK A01 T00961058  RH  033%=      5-min Rain = 0
KPD1 131657Z 13008KT 10/M06 A3036 RMK A01 T00981057  RH  033%=      5-min Rain = 0
KPD1 131658Z 13009KT 10/M06 A3036 RMK A01 T00991058  RH  033%=      5-min Rain = 0
KPD1 131659Z 13009KT 10/M06 A3036 RMK A01 T00981058  RH  033%=      5-min Rain = 0
KPD1 131700Z 13006KT 10/M06 A3036 RMK A01 T01001057  RH  033%=      5-min Rain = 0
KPD1 131701Z 14005KT 10/M06 A3036 RMK A01 T01011058  RH  032%=      5-min Rain = 0
KPD1 131702Z 14008KT 10/M06 A3036 RMK A01 T01011058  RH  032%=      5-min Rain = 0
KPD1 131703Z 14008KT 10/M06 A3036 RMK A01 T01011058  RH  032%=      5-min Rain = 0
KPD1 131704Z 13004KT 10/M06 A3036 RMK A01 T00991060  RH  032%=      5-min Rain = 0
KPD1 131705Z 14007G12KT 10/M06 A3036 RMK A01 T00991058  RH  033%=      5-min Rain = 0
KPD1 131706Z 14008KT 10/M06 A3036 RMK A01 T01001058  RH  032%=      5-min Rain = 0
KPD1 131707Z 14009KT 10/M06 A3036 RMK A01 T01001059  RH  032%=      5-min Rain = 0
KPD1 131708Z 14005KT 10/M06 A3036 RMK A01 T00981060  RH  032%=      5-min Rain = 0
KPD1 131709Z 14008KT 10/M06 A3036 RMK A01 T00971059  RH  033%=      5-min Rain = 0
KPD1 131710Z 16005KT 10/M06 A3036 RMK A01 T00971060  RH  032%=      5-min Rain = 0
KPD1 131711Z 16007KT 10/M06 A3036 RMK A01 T00951061  RH  033%=      5-min Rain = 0
KPD1 131712Z 16009KT 10/M06 A3036 RMK A01 T00951059  RH  033%=      5-min Rain = 0
KPD1 131713Z 15009KT 10/M06 A3036 RMK A01 T00971058  RH  033%=      5-min Rain = 0
KPD1 131714Z 14007KT 10/M06 A3036 RMK A01 T00971059  RH  033%=      5-min Rain = 0
KPD1 131715Z 13009KT 10/M06 A3036 RMK A01 T00971059  RH  033%=      5-min Rain = 0
KPD1 131716Z 13007KT 10/M06 A3036 RMK A01 T00951060  RH  033%=      5-min Rain = 0
KPD1 131717Z 14006KT 09/M06 A3036 RMK A01 T00941060  RH  033%=      5-min Rain = 0
KPD1 131718Z 15009KT 10/M06 A3036 RMK A01 T00951058  RH  033%=      5-min Rain = 0
KPD1 131719Z 14008KT 10/M06 A3036 RMK A01 T00981057  RH  033%=      5-min Rain = 0
KPD1 131720Z 14008KT 10/M06 A3036 RMK A01 T00991058  RH  033%=      5-min Rain = 0
KPD1 131721Z 14006KT 10/M06 A3036 RMK A01 T01001058  RH  032%=      5-min Rain = 0
KPD1 131722Z 14009KT 10/M06 A3036 RMK A01 T01001058  RH  032%=      5-min Rain = 0
KPD1 131723Z 15009KT 10/M06 A3036 RMK A01 T00991059  RH  032%=      5-min Rain = 0
KPD1 131724Z 17009KT 10/M06 A3036 RMK A01 T00971060  RH  032%=      5-min Rain = 0
KPD1 131725Z 15009KT 10/M06 A3036 RMK A01 T00971059  RH  033%=      5-min Rain = 0
KPD1 131726Z 16009KT 10/M06 A3036 RMK A01 T00981059  RH  033%=      5-min Rain = 0
KPD1 131727Z 15008KT 10/M06 A3036 RMK A01 T00991058  RH  033%=      5-min Rain = 0
KPD1 131728Z 17008KT 10/M06 A3036 RMK A01 T01011057  RH  032%=      5-min Rain = 0
KPD1 131729Z 16007KT 10/M06 A3036 RMK A01 T01021058  RH  032%=      5-min Rain = 0
KPD1 131730Z 17008KT 10/M06 A3036 RMK A01 T01011059  RH  032%=      5-min Rain = 0
KPD1 131731Z 15009KT 10/M06 A3036 RMK A01 T01001059  RH  032%=      5-min Rain = 0
KPD1 131732Z 15007KT 10/M06 A3036 RMK A01 T01011059  RH  032%=      5-min Rain = 0
KPD1 131733Z 16008KT 10/M06 A3036 RMK A01 T01021058  RH  032%=      5-min Rain = 0
KPD1 131734Z 15008KT 10/M06 A3036 RMK A01 T01031058  RH  032%=      5-min Rain = 0
KPD1 131735Z 17008KT 10/M06 A3036 RMK A01 T01021059  RH  032%=      5-min Rain = 0
KPD1 131736Z 15007KT 10/M06 A3035 RMK A01 T01031058  RH  032%=      5-min Rain = 0
KPD1 131737Z 16008KT 10/M06 A3035 RMK A01 T01041058  RH  031%=      5-min Rain = 0
KPD1 131738Z 16010KT 11/M06 A3035 RMK A01 T01051059  RH  031%=      5-min Rain = 0
KPD1 131739Z 15008KT 10/M06 A3036 RMK A01 T01031060  RH  031%=      5-min Rain = 0
KPD1 131740Z 14008KT 10/M06 A3036 RMK A01 T01031060  RH  031%=      5-min Rain = 0
KPD1 131741Z 16007KT 10/M06 A3036 RMK A01 T01011060  RH  032%=      5-min Rain = 0
KPD1 131742Z 16006KT 10/M06 A3035 RMK A01 T01011060  RH  032%=      5-min Rain = 0
KPD1 131743Z 15007KT 10/M06 A3035 RMK A01 T01011060  RH  032%=      5-min Rain = 0
KPD1 131744Z 12007KT 10/M06 A3035 RMK A01 T01021059  RH  032%=      5-min Rain = 0
KPD1 131745Z 15005KT 10/M06 A3035 RMK A01 T01031059  RH  031%=      5-min Rain = 0
KPD1 131746Z 17008KT 10/M06 A3035 RMK A01 T01031058  RH  032%=      5-min Rain = 0
KPD1 131747Z 16006KT 11/M06 A3035 RMK A01 T01051058  RH  031%=      5-min Rain = 0
KPD1 131748Z 13004KT 11/M06 A3035 RMK A01 T01061058  RH  031%=      5-min Rain = 0
KPD1 131749Z 16007KT 11/M06 A3035 RMK A01 T01071058  RH  031%=      5-min Rain = 0
KPD1 131750Z 16008KT 11/M06 A3035 RMK A01 T01071059  RH  031%=      5-min Rain = 0
KPD1 131751Z 14006G11KT 11/M06 A3035 RMK A01 T01061059  RH  031%=      5-min Rain = 0
KPD1 131752Z 13007KT 11/M06 A3035 RMK A01 T01071059  RH  031%=      5-min Rain = 0
KPD1 131753Z 14005KT 11/M06 A3035 RMK A01 T01071058  RH  031%=      5-min Rain = 0
KPD1 131754Z 12007KT 11/M06 A3035 RMK A01 T01081058  RH  031%=      5-min Rain = 0
KPD1 131755Z 14008KT 11/M06 A3035 RMK A01 T01081059  RH  030%=      5-min Rain = 0
KPD1 131756Z 14007KT 11/M06 A3035 RMK A01 T01081058  RH  031%=      5-min Rain = 0
KPD1 131757Z 12006KT 11/M06 A3035 RMK A01 T01091058  RH  030%=      5-min Rain = 0
KPD1 131758Z 10006KT 11/M06 A3035 RMK A01 T01081058  RH  030%=      5-min Rain = 0
KPD1 131759Z 11005KT 11/M06 A3035 RMK A01 T01111056  RH  031%=      5-min Rain = 0
KPD1 131800Z 15006KT 11/M06 A3035 RMK A01 T01121058  RH  030%=      5-min Rain = 0
KPD1 131801Z 17006KT 11/M06 A3035 RMK A01 T01121057  RH  030%=      5-min Rain = 0
KPD1 131802Z 15007KT 11/M06 A3035 RMK A01 T01141055  RH  030%=      5-min Rain = 0
KPD1 131803Z 13008KT 12/M06 A3035 RMK A01 T01171055  RH  029%=      5-min Rain = 0
KPD1 131804Z 11008KT 11/M06 A3035 RMK A01 T01141059  RH  029%=      5-min Rain = 0
KPD1 131805Z 12008KT 11/M06 A3035 RMK A01 T01131058  RH  030%=      5-min Rain = 0
KPD1 131806Z 12005KT 11/M06 A3035 RMK A01 T01131058  RH  030%=      5-min Rain = 0
KPD1 131807Z 15004KT 11/M06 A3035 RMK A01 T01141056  RH  030%=      5-min Rain = 0
KPD1 131808Z 13008G13KT 12/M05 A3035 RMK A01 T01211051  RH  030%=      5-min Rain = 0
KPD1 131809Z 13006KT 13/M05 A3035 RMK A01 T01261052  RH  029%=      5-min Rain = 0
KPD1 131810Z 12006KT 13/M06 A3035 RMK A01 T01261055  RH  028%=      5-min Rain = 0
KPD1 131811Z 16005KT 12/M06 A3035 RMK A01 T01231056  RH  028%=      5-min Rain = 0
KPD1 131812Z 16003KT 12/M05 A3035 RMK A01 T01241054  RH  029%=      5-min Rain = 0
KPD1 131813Z 15006G12KT 13/M06 A3035 RMK A01 T01251055  RH  028%=      5-min Rain = 0
KPD1 131814Z 15007KT 13/M05 A3035 RMK A01 T01261054  RH  028%=      5-min Rain = 0
KPD1 131815Z 15004KT 13/M05 A3035 RMK A01 T01301053  RH  028%=      5-min Rain = 0
KPD1 131816Z 10003KT 13/M06 A3035 RMK A01 T01281056  RH  027%=      5-min Rain = 0
KPD1 131817Z 14005G10KT 13/M06 A3035 RMK A01 T01271055  RH  028%=      5-min Rain = 0
KPD1 131818Z 16008KT 13/M06 A3035 RMK A01 T01271055  RH  028%=      5-min Rain = 0
KPD1 131819Z 16009KT 13/M06 A3035 RMK A01 T01271055  RH  028%=      5-min Rain = 0
KPD1 131820Z 16008KT 13/M06 A3035 RMK A01 T01251056  RH  028%=      5-min Rain = 0
KPD1 131821Z 14006KT 13/M06 A3035 RMK A01 T01251055  RH  028%=      5-min Rain = 0
KPD1 131822Z 14005KT 13/M05 A3035 RMK A01 T01291052  RH  028%=      5-min Rain = 0
KPD1 131823Z 13005KT 13/M05 A3035 RMK A01 T01311054  RH  027%=      5-min Rain = 0
KPD1 131824Z 11003KT 13/M06 A3035 RMK A01 T01291055  RH  027%=      5-min Rain = 0
KPD1 131825Z 15005KT 13/M06 A3035 RMK A01 T01271055  RH  028%=      5-min Rain = 0
KPD1 131826Z 15009KT 13/M05 A3035 RMK A01 T01291053  RH  028%=      5-min Rain = 0
KPD1 131827Z 14008KT 13/M06 A3035 RMK A01 T01291055  RH  027%=      5-min Rain = 0
KPD1 131828Z 16007KT 13/M06 A3035 RMK A01 T01281055  RH  027%=      5-min Rain = 0
KPD1 131829Z 15005KT 13/M06 A3035 RMK A01 T01271056  RH  028%=      5-min Rain = 0
KPD1 131830Z 19004KT 13/M06 A3035 RMK A01 T01251057  RH  028%=      5-min Rain = 0
KPD1 131831Z 14004KT 12/M06 A3035 RMK A01 T01241057  RH  028%=      5-min Rain = 0
KPD1 131832Z 14006KT 12/M06 A3035 RMK A01 T01241056  RH  028%=      5-min Rain = 0
KPD1 131833Z 15007KT 13/M06 A3034 RMK A01 T01251056  RH  028%=      5-min Rain = 0
KPD1 131834Z 14008KT 13/M06 A3034 RMK A01 T01261056  RH  028%=      5-min Rain = 0
KPD1 131835Z 11007KT 13/M06 A3035 RMK A01 T01271056  RH  028%=      5-min Rain = 0
KPD1 131836Z 10007KT 13/M06 A3034 RMK A01 T01271056  RH  027%=      5-min Rain = 0
KPD1 131837Z 13004KT 12/M06 A3034 RMK A01 T01241058  RH  028%=      5-min Rain = 0
KPD1 131838Z 12005G10KT 12/M06 A3034 RMK A01 T01231057  RH  028%=      5-min Rain = 0
KPD1 131839Z 09007KT 12/M06 A3034 RMK A01 T01231056  RH  028%=      5-min Rain = 0
KPD1 131840Z 08006KT 13/M06 A3034 RMK A01 T01251056  RH  028%=      5-min Rain = 0
KPD1 131841Z 12008KT 12/M06 A3034 RMK A01 T01241055  RH  028%=      5-min Rain = 0
KPD1 131842Z 17009KT 13/M05 A3034 RMK A01 T01291052  RH  028%=      5-min Rain = 0
KPD1 131843Z 18007KT 13/M05 A3034 RMK A01 T01331052  RH  027%=      5-min Rain = 0
KPD1 131844Z 15007KT 13/M05 A3034 RMK A01 T01341053  RH  027%=      5-min Rain = 0
KPD1 131845Z 14006KT 13/M05 A3034 RMK A01 T01321054  RH  027%=      5-min Rain = 0
KPD1 131846Z 13004KT 13/M05 A3034 RMK A01 T01331053  RH  027%=      5-min Rain = 0
KPD1 131847Z 17007KT 14/M05 A3034 RMK A01 T01351052  RH  027%=      5-min Rain = 0
KPD1 131848Z 18007KT 14/M05 A3034 RMK A01 T01361053  RH  027%=      5-min Rain = 0
KPD1 131849Z 17004KT 14/M05 A3034 RMK A01 T01361053  RH  027%=      5-min Rain = 0
KPD1 131850Z 20002KT 13/M06 A3034 RMK A01 T01331056  RH  026%=      5-min Rain = 0
KPD1 131851Z 18003KT 13/M05 A3034 RMK A01 T01321054  RH  027%=      5-min Rain = 0
KPD1 131852Z 16003KT 14/M05 A3034 RMK A01 T01351052  RH  027%=      5-min Rain = 0
KPD1 131853Z 15007KT 14/M05 A3034 RMK A01 T01351053  RH  027%=      5-min Rain = 0
KPD1 131854Z 15008KT 14/M05 A3034 RMK A01 T01351054  RH  026%=      5-min Rain = 0
KPD1 131855Z 16009KT 14/M05 A3034 RMK A01 T01351054  RH  026%=      5-min Rain = 0
KPD1 131856Z 15009KT 14/M05 A3034 RMK A01 T01391051  RH  026%=      5-min Rain = 0
KPD1 131857Z 15006KT 14/M05 A3034 RMK A01 T01411053  RH  026%=      5-min Rain = 0
KPD1 131858Z 15007KT 14/M06 A3034 RMK A01 T01371055  RH  026%=      5-min Rain = 0
KPD1 131859Z 13005KT 14/M06 A3034 RMK A01 T01361055  RH  026%=      5-min Rain = 0
KPD1 131900Z 13005KT 13/M06 A3034 RMK A01 T01341056  RH  026%=      5-min Rain = 0
KPD1 131901Z 13002KT 13/M05 A3034 RMK A01 T01341054  RH  027%=      5-min Rain = 0
KPD1 131902Z 13000KT 14/M06 A3034 RMK A01 T01351055  RH  026%=      5-min Rain = 0
KPD1 131903Z 13001KT 14/M05 A3034 RMK A01 T01351054  RH  027%=      5-min Rain = 0
KPD1 131904Z 14004KT 14/M05 A3034 RMK A01 T01371053  RH  026%=      5-min Rain = 0
KPD1 131905Z 16005KT 14/M05 A3034 RMK A01 T01371054  RH  026%=      5-min Rain = 0
KPD1 131906Z 12005KT 14/M06 A3033 RMK A01 T01351055  RH  026%=      5-min Rain = 0
KPD1 131907Z 12006KT 13/M06 A3033 RMK A01 T01331056  RH  026%=      5-min Rain = 0
KPD1 131908Z 14008KT 13/M05 A3033 RMK A01 T01341053  RH  027%=      5-min Rain = 0
KPD1 131909Z 13008KT 14/M05 A3033 RMK A01 T01381052  RH  026%=      5-min Rain = 0
KPD1 131910Z 15007KT 14/M05 A3033 RMK A01 T01371054  RH  026%=      5-min Rain = 0
KPD1 131911Z 14006KT 14/M05 A3033 RMK A01 T01361054  RH  026%=      5-min Rain = 0
KPD1 131912Z 15004KT 14/M05 A3033 RMK A01 T01381053  RH  026%=      5-min Rain = 0
KPD1 131913Z 11004KT 14/M06 A3033 RMK A01 T01381055  RH  026%=      5-min Rain = 0
KPD1 131914Z 07004KT 14/M06 A3033 RMK A01 T01361055  RH  026%=      5-min Rain = 0
KPD1 131915Z 07002KT 14/M06 A3033 RMK A01 T01361055  RH  026%=      5-min Rain = 0
KPD1 131916Z 13004KT 13/M06 A3033 RMK A01 T01321056  RH  026%=      5-min Rain = 0
KPD1 131917Z 12007KT 13/M05 A3033 RMK A01 T01341054  RH  027%=      5-min Rain = 0
KPD1 131918Z 11008KT 14/M05 A3033 RMK A01 T01361054  RH  026%=      5-min Rain = 0
KPD1 131919Z 11007KT 14/M06 A3033 RMK A01 T01371055  RH  026%=      5-min Rain = 0
KPD1 131920Z 15004G9KT 13/M06 A3033 RMK A01 T01341057  RH  026%=      5-min Rain = 0
KPD1 131921Z 16008KT 13/M06 A3033 RMK A01 T01341055  RH  026%=      5-min Rain = 0
KPD1 131922Z 16006KT 14/M06 A3033 RMK A01 T01351055  RH  026%=      5-min Rain = 0
KPD1 131923Z 18003KT 14/M05 A3032 RMK A01 T01361054  RH  026%=      5-min Rain = 0
KPD1 131924Z 18005KT 14/M05 A3032 RMK A01 T01371054  RH  026%=      5-min Rain = 0
KPD1 131925Z 21003KT 14/M06 A3032 RMK A01 T01361055  RH  026%=      5-min Rain = 0
KPD1 131926Z 22001KT 14/M06 A3032 RMK A01 T01361055  RH  026%=      5-min Rain = 0
KPD1 131927Z 15005G12KT 14/M06 A3032 RMK A01 T01361056  RH  026%=      5-min Rain = 0
KPD1 131928Z 12006KT 14/M06 A3032 RMK A01 T01371055  RH  026%=      5-min Rain = 0
KPD1 131929Z 15008KT 14/M06 A3032 RMK A01 T01381055  RH  026%=      5-min Rain = 0
KPD1 131930Z 14010G15KT 14/M05 A3032 RMK A01 T01401054  RH  026%=      5-min Rain = 0
KPD1 131931Z 14007KT 14/M06 A3032 RMK A01 T01401055  RH  025%=      5-min Rain = 0
KPD1 131932Z 16008KT 14/M06 A3032 RMK A01 T01391056  RH  025%=      5-min Rain = 0
KPD1 131933Z 16007KT 14/M06 A3032 RMK A01 T01371057  RH  026%=      5-min Rain = 0
KPD1 131934Z 16007KT 14/M06 A3032 RMK A01 T01361055  RH  026%=      5-min Rain = 0
KPD1 131935Z 17006KT 14/M05 A3032 RMK A01 T01371054  RH  026%=      5-min Rain = 0
KPD1 131936Z 15004KT 14/M06 A3032 RMK A01 T01371056  RH  026%=      5-min Rain = 0
KPD1 131937Z 11005KT 14/M05 A3032 RMK A01 T01371054  RH  026%=      5-min Rain = 0
KPD1 131938Z 10003KT 14/M05 A3031 RMK A01 T01401054  RH  026%=      5-min Rain = 0
KPD1 131939Z 14006KT 14/M06 A3031 RMK A01 T01401056  RH  025%=      5-min Rain = 0
KPD1 131940Z 16007KT 14/M06 A3031 RMK A01 T01381057  RH  025%=      5-min Rain = 0
KPD1 131941Z 12010KT 14/M06 A3031 RMK A01 T01371056  RH  026%=      5-min Rain = 0
KPD1 131942Z 14007KT 14/M06 A3031 RMK A01 T01351057  RH  026%=      5-min Rain = 0
KPD1 131943Z 19003KT 13/M06 A3031 RMK A01 T01331058  RH  026%=      5-min Rain = 0
KPD1 131944Z 15005G10KT 13/M06 A3031 RMK A01 T01331057  RH  026%=      5-min Rain = 0
KPD1 131945Z 15008KT 14/M06 A3031 RMK A01 T01351055  RH  026%=      5-min Rain = 0
KPD1 131946Z 15009KT 14/M05 A3031 RMK A01 T01381054  RH  026%=      5-min Rain = 0
KPD1 131947Z 15008KT 14/M05 A3031 RMK A01 T01401054  RH  026%=      5-min Rain = 0
KPD1 131948Z 17005KT 14/M05 A3031 RMK A01 T01421054  RH  025%=      5-min Rain = 0
KPD1 131949Z 18003G8KT 14/M06 A3031 RMK A01 T01411056  RH  025%=      5-min Rain = 0
KPD1 131950Z 18006G11KT 14/M05 A3031 RMK A01 T01401054  RH  025%=      5-min Rain = 0
KPD1 131951Z 18008KT 15/M05 A3031 RMK A01 T01461050  RH  025%=      5-min Rain = 0
KPD1 131952Z 16007KT 15/M05 A3031 RMK A01 T01491051  RH  025%=      5-min Rain = 0
KPD1 131953Z 16007KT 15/M06 A3031 RMK A01 T01481055  RH  024%=      5-min Rain = 0
KPD1 131954Z 16008KT 15/M05 A3031 RMK A01 T01451054  RH  025%=      5-min Rain = 0
KPD1 131955Z 18008KT 15/M05 A3031 RMK A01 T01461054  RH  025%=      5-min Rain = 0
KPD1 131956Z 21006KT 14/M06 A303 RMK A01 T01431057  RH  025%=      5-min Rain = 0
KPD1 131957Z 15004KT 14/M06 A3031 RMK A01 T01401058  RH  025%=      5-min Rain = 0
KPD1 131958Z 13003KT 14/M06 A303 RMK A01 T01391057  RH  025%=      5-min Rain = 0
KPD1 131959Z 17002KT 14/M06 A303 RMK A01 T01381058  RH  025%=      5-min Rain = 0
KPD1 132000Z 13002KT 14/M06 A303 RMK A01 T01361058  RH  026%=      5-min Rain = 0
KPD1 132001Z 18004KT 14/M06 A303 RMK A01 T01381055  RH  026%=      5-min Rain = 0
KPD1 132002Z 15007KT 14/M05 A303 RMK A01 T01411054  RH  025%=      5-min Rain = 0
KPD1 132003Z 16009KT 14/M06 A303 RMK A01 T01431055  RH  025%=      5-min Rain = 0
KPD1 132004Z 16007KT 14/M06 A303 RMK A01 T01441055  RH  025%=      5-min Rain = 0
KPD1 132005Z 16007KT 15/M06 A303 RMK A01 T01451055  RH  025%=      5-min Rain = 0
KPD1 132006Z 14010KT 15/M05 A303 RMK A01 T01461054  RH  025%=      5-min Rain = 0
KPD1 132007Z 15009KT 15/M06 A303 RMK A01 T01461056  RH  024%=      5-min Rain = 0
KPD1 132008Z 15008KT 15/M06 A303 RMK A01 T01451055  RH  025%=      5-min Rain = 0
KPD1 132009Z 15007KT 15/M06 A303 RMK A01 T01451055  RH  025%=      5-min Rain = 0
KPD1 132010Z 15005KT 15/M06 A303 RMK A01 T01451055  RH  025%=      5-min Rain = 0
KPD1 132011Z 17007KT 15/M06 A303 RMK A01 T01451055  RH  025%=      5-min Rain = 0
KPD1 132012Z 16006KT 15/M05 A303 RMK A01 T01471053  RH  025%=      5-min Rain = 0
KPD1 132013Z 13006KT 15/M05 A303 RMK A01 T01491054  RH  024%=      5-min Rain = 0
KPD1 132014Z 15007KT 15/M06 A303 RMK A01 T01471057  RH  024%=      5-min Rain = 0
KPD1 132015Z 16006KT 14/M06 A303 RMK A01 T01431058  RH  024%=      5-min Rain = 0
KPD1 132016Z 14005KT 14/M06 A303 RMK A01 T01421058  RH  025%=      5-min Rain = 0
KPD1 132017Z 15005KT 14/M06 A303 RMK A01 T01411058  RH  025%=      5-min Rain = 0
KPD1 132018Z 16006KT 14/M06 A303 RMK A01 T01411058  RH  025%=      5-min Rain = 0
KPD1 132019Z 18003KT 14/M06 A303 RMK A01 T01391059  RH  025%=      5-min Rain = 0
KPD1 132020Z 15004KT 14/M06 A303 RMK A01 T01371059  RH  025%=      5-min Rain = 0
KPD1 132021Z 15007KT 14/M06 A303 RMK A01 T01381058  RH  025%=      5-min Rain = 0
KPD1 132022Z 16007KT 14/M06 A303 RMK A01 T01381058  RH  025%=      5-min Rain = 0
KPD1 132023Z 15006KT 14/M06 A303 RMK A01 T01381058  RH  025%=      5-min Rain = 0
KPD1 132024Z 15009KT 14/M06 A303 RMK A01 T01371058  RH  025%=      5-min Rain = 0
KPD1 132025Z 15008KT 14/M06 A303 RMK A01 T01371058  RH  025%=      5-min Rain = 0
KPD1 132026Z 16007KT 14/M06 A303 RMK A01 T01351060  RH  025%=      5-min Rain = 0
KPD1 132027Z 15004KT 14/M06 A303 RMK A01 T01351058  RH  026%=      5-min Rain = 0
KPD1 132028Z 14007KT 14/M06 A303 RMK A01 T01361058  RH  025%=      5-min Rain = 0
KPD1 132029Z 14007KT 14/M06 A303 RMK A01 T01361059  RH  025%=      5-min Rain = 0
KPD1 132030Z 14006KT 14/M06 A303 RMK A01 T01351059  RH  025%=      5-min Rain = 0
KPD1 132031Z 13005KT 14/M06 A303 RMK A01 T01351059  RH  025%=      5-min Rain = 0
KPD1 132032Z 16008KT 14/M06 A303 RMK A01 T01361058  RH  025%=      5-min Rain = 0
KPD1 132033Z 16007KT 14/M06 A303 RMK A01 T01371058  RH  025%=      5-min Rain = 0
KPD1 132034Z 15005KT 14/M06 A303 RMK A01 T01381058  RH  025%=      5-min Rain = 0
KPD1 132035Z 15004KT 14/M06 A303 RMK A01 T01381058  RH  025%=      5-min Rain = 0
KPD1 132036Z 16001KT 14/M06 A303 RMK A01 T01381058  RH  025%=      5-min Rain = 0
KPD1 132037Z 13002KT 14/M06 A303 RMK A01 T01381058  RH  025%=      5-min Rain = 0
KPD1 132038Z 12004KT 14/M06 A303 RMK A01 T01381059  RH  025%=      5-min Rain = 0
KPD1 132039Z 16005KT 14/M06 A303 RMK A01 T01381059  RH  025%=      5-min Rain = 0
KPD1 132040Z 16003KT 14/M06 A303 RMK A01 T01361060  RH  025%=      5-min Rain = 0
KPD1 132041Z 17006KT 14/M06 A303 RMK A01 T01351060  RH  025%=      5-min Rain = 0
KPD1 132042Z 16004KT 14/M06 A3029 RMK A01 T01371057  RH  026%=      5-min Rain = 0
KPD1 132043Z 13003KT 14/M06 A3029 RMK A01 T01391058  RH  025%=      5-min Rain = 0
KPD1 132044Z 15003KT 14/M06 A3029 RMK A01 T01391059  RH  025%=      5-min Rain = 0
KPD1 132045Z 14004KT 14/M06 A3029 RMK A01 T01411059  RH  025%=      5-min Rain = 0
KPD1 132046Z 13003KT 14/M06 A3029 RMK A01 T01411060  RH  024%=      5-min Rain = 0
KPD1 132047Z 16004KT 14/M06 A3029 RMK A01 T01401060  RH  024%=      5-min Rain = 0
KPD1 132048Z 15004KT 14/M06 A3029 RMK A01 T01401059  RH  025%=      5-min Rain = 0
KPD1 132049Z 15003KT 14/M06 A3029 RMK A01 T01401060  RH  025%=      5-min Rain = 0
KPD1 132050Z 15002KT 14/M06 A3029 RMK A01 T01411058  RH  025%=      5-min Rain = 0
KPD1 132051Z 19002KT 14/M06 A3029 RMK A01 T01431058  RH  024%=      5-min Rain = 0
KPD1 132052Z 01000KT 14/M06 A3029 RMK A01 T01441060  RH  024%=      5-min Rain = 0
KPD1 132053Z 17003G9KT 15/M06 A3029 RMK A01 T01451058  RH  024%=      5-min Rain = 0
KPD1 132054Z 15003KT 15/M06 A3029 RMK A01 T01501055  RH  024%=      5-min Rain = 0
KPD1 132055Z 11004KT 15/M06 A3029 RMK A01 T01511057  RH  023%=      5-min Rain = 0
KPD1 132056Z 12003KT 15/M06 A3029 RMK A01 T01491058  RH  023%=      5-min Rain = 0
KPD1 132057Z 17006KT 15/M06 A3029 RMK A01 T01491058  RH  024%=      5-min Rain = 0
KPD1 132058Z 18008KT 15/M06 A3029 RMK A01 T01481058  RH  024%=      5-min Rain = 0
KPD1 132059Z 15003KT 14/M06 A3029 RMK A01 T01441060  RH  024%=      5-min Rain = 0
KPD1 132100Z 07001KT 14/M06 A3029 RMK A01 T01421060  RH  024%=      5-min Rain = 0
KPD1 132101Z 08002KT 14/M06 A3029 RMK A01 T01401060  RH  025%=      5-min Rain = 0
KPD1 132102Z 15006KT 14/M06 A3029 RMK A01 T01391059  RH  025%=      5-min Rain = 0
KPD1 132103Z 14005KT 14/M06 A3029 RMK A01 T01401059  RH  025%=      5-min Rain = 0
KPD1 132104Z 13004KT 14/M06 A3029 RMK A01 T01421058  RH  024%=      5-min Rain = 0
KPD1 132105Z 15003KT 15/M06 A3029 RMK A01 T01461058  RH  024%=      5-min Rain = 0
KPD1 132106Z 19006KT 15/M06 A3029 RMK A01 T01461058  RH  024%=      5-min Rain = 0
KPD1 132107Z 20006KT 15/M06 A3029 RMK A01 T01471059  RH  024%=      5-min Rain = 0
KPD1 132108Z 20006KT 15/M06 A3029 RMK A01 T01481058  RH  024%=      5-min Rain = 0
KPD1 132109Z 21004KT 15/M06 A3029 RMK A01 T01471060  RH  023%=      5-min Rain = 0
KPD1 132110Z 22002KT 15/M06 A3029 RMK A01 T01451060  RH  024%=      5-min Rain = 0
KPD1 132111Z 17004KT 15/M06 A3029 RMK A01 T01451059  RH  024%=      5-min Rain = 0
KPD1 132112Z 19005KT 15/M06 A3029 RMK A01 T01481057  RH  024%=      5-min Rain = 0
KPD1 132113Z 17008KT 15/M06 A3029 RMK A01 T01501057  RH  024%=      5-min Rain = 0
KPD1 132114Z 17007KT 15/M06 A3029 RMK A01 T01531056  RH  023%=      5-min Rain = 0
KPD1 132115Z 16008KT 15/M06 A3029 RMK A01 T01541056  RH  023%=      5-min Rain = 0
KPD1 132116Z 13007KT 16/M06 A3029 RMK A01 T01581055  RH  023%=      5-min Rain = 0
KPD1 132117Z 15007KT 16/M06 A3029 RMK A01 T01581056  RH  022%=      5-min Rain = 0
KPD1 132118Z 15010KT 16/M06 A3029 RMK A01 T01591056  RH  022%=      5-min Rain = 0
KPD1 132119Z 15011KT 16/M06 A3029 RMK A01 T01591057  RH  022%=      5-min Rain = 0
KPD1 132120Z 14008KT 16/M06 A3029 RMK A01 T01591057  RH  022%=      5-min Rain = 0
KPD1 132121Z 14008KT 16/M06 A3029 RMK A01 T01581058  RH  022%=      5-min Rain = 0
KPD1 132122Z 14008KT 16/M06 A3029 RMK A01 T01571057  RH  022%=      5-min Rain = 0
KPD1 132123Z 15007KT 16/M06 A3029 RMK A01 T01551058  RH  022%=      5-min Rain = 0
KPD1 132124Z 13007KT 16/M06 A3029 RMK A01 T01551058  RH  023%=      5-min Rain = 0
KPD1 132125Z 16008KT 16/M06 A3029 RMK A01 T01561056  RH  023%=      5-min Rain = 0
KPD1 132126Z 15006KT 16/M06 A3029 RMK A01 T01591055  RH  022%=      5-min Rain = 0
KPD1 132127Z 13008KT 16/M06 A3028 RMK A01 T01581058  RH  022%=      5-min Rain = 0
KPD1 132128Z 14003KT 16/M06 A3028 RMK A01 T01561058  RH  022%=      5-min Rain = 0
KPD1 132129Z 15007G12KT 16/M06 A3028 RMK A01 T01551058  RH  022%=      5-min Rain = 0
KPD1 132130Z 15011KT 16/M06 A3028 RMK A01 T01551057  RH  023%=      5-min Rain = 0
KPD1 132131Z 15009KT 16/M06 A3028 RMK A01 T01571056  RH  023%=      5-min Rain = 0
KPD1 132132Z 13009KT 16/M06 A3028 RMK A01 T01591056  RH  022%=      5-min Rain = 0
KPD1 132133Z 14008KT 16/M06 A3028 RMK A01 T01571059  RH  022%=      5-min Rain = 0
KPD1 132134Z 14007KT 15/M06 A3028 RMK A01 T01541060  RH  022%=      5-min Rain = 0
KPD1 132135Z 14007KT 15/M06 A3028 RMK A01 T01521060  RH  023%=      5-min Rain = 0
KPD1 132136Z 15008KT 15/M06 A3028 RMK A01 T01511060  RH  023%=      5-min Rain = 0
KPD1 132137Z 17005KT 15/M06 A3028 RMK A01 T01511059  RH  023%=      5-min Rain = 0
KPD1 132138Z 15003KT 15/M06 A3028 RMK A01 T01521059  RH  023%=      5-min Rain = 0
KPD1 132139Z 12001KT 15/M06 A3028 RMK A01 T01541060  RH  022%=      5-min Rain = 0
KPD1 132140Z 13007KT 15/M06 A3028 RMK A01 T01541060  RH  022%=      5-min Rain = 0
KPD1 132141Z 09005KT 15/M06 A3028 RMK A01 T01531062  RH  022%=      5-min Rain = 0
KPD1 132142Z 07005KT 15/M06 A3028 RMK A01 T01491063  RH  022%=      5-min Rain = 0
KPD1 132143Z 08005KT 15/M06 A3028 RMK A01 T01491061  RH  023%=      5-min Rain = 0
KPD1 132144Z 13007KT 15/M06 A3028 RMK A01 T01521059  RH  023%=      5-min Rain = 0
KPD1 132145Z 15007KT 16/M06 A3028 RMK A01 T01551057  RH  023%=      5-min Rain = 0
KPD1 132146Z 15008KT 16/M06 A3028 RMK A01 T01571057  RH  022%=      5-min Rain = 0
KPD1 132147Z 17007KT 16/M06 A3028 RMK A01 T01581057  RH  022%=      5-min Rain = 0
KPD1 132148Z 15007KT 16/M06 A3028 RMK A01 T01571057  RH  022%=      5-min Rain = 0
KPD1 132149Z 16007KT 16/M06 A3028 RMK A01 T01581056  RH  023%=      5-min Rain = 0
KPD1 132150Z 15008KT 16/M06 A3028 RMK A01 T01591056  RH  022%=      5-min Rain = 0
KPD1 132151Z 16008KT 16/M06 A3028 RMK A01 T01571059  RH  022%=      5-min Rain = 0
KPD1 132152Z 16006KT 15/M06 A3028 RMK A01 T01511061  RH  023%=      5-min Rain = 0
KPD1 132153Z 15005KT 15/M06 A3028 RMK A01 T01471061  RH  023%=      5-min Rain = 0
KPD1 132154Z 16006KT 15/M06 A3028 RMK A01 T01461060  RH  024%=      5-min Rain = 0
KPD1 132155Z 16005KT 15/M06 A3028 RMK A01 T01451060  RH  024%=      5-min Rain = 0
KPD1 132156Z 17006KT 14/M06 A3028 RMK A01 T01441060  RH  024%=      5-min Rain = 0
KPD1 132157Z 17005KT 14/M06 A3028 RMK A01 T01421061  RH  024%=      5-min Rain = 0
KPD1 132158Z 18006KT 14/M06 A3028 RMK A01 T01421059  RH  024%=      5-min Rain = 0
KPD1 132159Z 16006KT 14/M06 A3028 RMK A01 T01441058  RH  024%=      5-min Rain = 0
KPD1 132200Z 16005KT 15/M06 A3028 RMK A01 T01471057  RH  024%=      5-min Rain = 0
KPD1 132201Z 15008KT 15/M05 A3028 RMK A01 T01521053  RH  024%=      5-min Rain = 0
KPD1 132202Z 15009KT 16/M05 A3028 RMK A01 T01571053  RH  023%=      5-min Rain = 0
KPD1 132203Z 15006KT 16/M06 A3028 RMK A01 T01561057  RH  023%=      5-min Rain = 0
KPD1 132204Z 15007KT 15/M06 A3028 RMK A01 T01531057  RH  023%=      5-min Rain = 0
KPD1 132205Z 15007KT 16/M05 A3028 RMK A01 T01561054  RH  023%=      5-min Rain = 0
KPD1 132206Z 14007KT 16/M06 A3027 RMK A01 T01571056  RH  023%=      5-min Rain = 0
KPD1 132207Z 13005KT 16/M06 A3027 RMK A01 T01571056  RH  023%=      5-min Rain = 0
KPD1 132208Z 15005KT 16/M06 A3027 RMK A01 T01561057  RH  023%=      5-min Rain = 0
KPD1 132209Z 15008KT 15/M06 A3027 RMK A01 T01541056  RH  023%=      5-min Rain = 0
KPD1 132210Z 15008KT 16/M06 A3027 RMK A01 T01561056  RH  023%=      5-min Rain = 0
KPD1 132211Z 15007KT 16/M06 A3027 RMK A01 T01551057  RH  023%=      5-min Rain = 0
KPD1 132212Z 16007KT 15/M06 A3028 RMK A01 T01541057  RH  023%=      5-min Rain = 0
KPD1 132213Z 16004KT 16/M06 A3028 RMK A01 T01551056  RH  023%=      5-min Rain = 0
KPD1 132214Z 17005KT 16/M06 A3028 RMK A01 T01551057  RH  023%=      5-min Rain = 0
KPD1 132215Z 15009KT 16/M06 A3028 RMK A01 T01561055  RH  023%=      5-min Rain = 0
KPD1 132216Z 16009KT 16/M06 A3028 RMK A01 T01561056  RH  023%=      5-min Rain = 0
KPD1 132217Z 17006KT 16/M06 A3028 RMK A01 T01561056  RH  023%=      5-min Rain = 0
KPD1 132218Z 16005KT 16/M06 A3028 RMK A01 T01571056  RH  023%=      5-min Rain = 0
KPD1 132219Z 15004KT 16/M06 A3028 RMK A01 T01561057  RH  023%=      5-min Rain = 0
KPD1 132220Z 15005G10KT 16/M06 A3028 RMK A01 T01551057  RH  023%=      5-min Rain = 0
KPD1 132221Z 14008G13KT 16/M06 A3028 RMK A01 T01551056  RH  023%=      5-min Rain = 0
KPD1 132222Z 14008KT 16/M06 A3028 RMK A01 T01561056  RH  023%=      5-min Rain = 0
KPD1 132223Z 14009KT 16/M06 A3028 RMK A01 T01561056  RH  023%=      5-min Rain = 0
KPD1 132224Z 15006KT 15/M06 A3028 RMK A01 T01531058  RH  023%=      5-min Rain = 0
KPD1 132225Z 16007KT 15/M06 A3028 RMK A01 T01511057  RH  023%=      5-min Rain = 0
KPD1 132226Z 16007KT 15/M06 A3027 RMK A01 T01521056  RH  023%=      5-min Rain = 0
KPD1 132227Z 16008G13KT 15/M06 A3027 RMK A01 T01521056  RH  023%=      5-min Rain = 0
KPD1 132228Z 15008KT 15/M06 A3027 RMK A01 T01531055  RH  023%=      5-min Rain = 0
KPD1 132229Z 16007KT 16/M06 A3027 RMK A01 T01561055  RH  023%=      5-min Rain = 0
KPD1 132230Z 16006KT 16/M06 A3027 RMK A01 T01561056  RH  023%=      5-min Rain = 0
KPD1 132231Z 17005KT 16/M06 A3027 RMK A01 T01551056  RH  023%=      5-min Rain = 0
KPD1 132232Z 16008KT 15/M06 A3027 RMK A01 T01541056  RH  023%=      5-min Rain = 0
KPD1 132233Z 16005KT 15/M06 A3027 RMK A01 T01541057  RH  023%=      5-min Rain = 0
KPD1 132234Z 17007KT 15/M06 A3027 RMK A01 T01541056  RH  023%=      5-min Rain = 0
KPD1 132235Z 17007KT 15/M06 A3027 RMK A01 T01541056  RH  023%=      5-min Rain = 0
KPD1 132236Z 16006KT 15/M06 A3027 RMK A01 T01531056  RH  023%=      5-min Rain = 0
KPD1 132237Z 18009KT 15/M06 A3027 RMK A01 T01531056  RH  023%=      5-min Rain = 0
KPD1 132238Z 17009KT 15/M06 A3027 RMK A01 T01541056  RH  023%=      5-min Rain = 0
KPD1 132239Z 19007KT 15/M06 A3027 RMK A01 T01541057  RH  023%=      5-min Rain = 0
KPD1 132240Z 19006KT 15/M06 A3027 RMK A01 T01531057  RH  023%=      5-min Rain = 0
KPD1 132241Z 20005KT 15/M06 A3027 RMK A01 T01511057  RH  023%=      5-min Rain = 0
KPD1 132242Z 21002KT 15/M06 A3027 RMK A01 T01491059  RH  023%=      5-min Rain = 0
KPD1 132243Z 25001KT 15/M06 A3027 RMK A01 T01471060  RH  023%=      5-min Rain = 0
KPD1 132244Z 14002G10KT 15/M06 A3027 RMK A01 T01451060  RH  024%=      5-min Rain = 0
KPD1 132245Z 15010KT 14/M06 A3027 RMK A01 T01441059  RH  024%=      5-min Rain = 0
KPD1 132246Z 13008KT 14/M06 A3027 RMK A01 T01421060  RH  024%=      5-min Rain = 0
KPD1 132247Z 13006KT 14/M06 A3027 RMK A01 T01401060  RH  024%=      5-min Rain = 0
KPD1 132248Z 12005KT 14/M06 A3027 RMK A01 T01401059  RH  025%=      5-min Rain = 0
KPD1 132249Z 13006KT 14/M06 A3027 RMK A01 T01401058  RH  025%=      5-min Rain = 0
KPD1 132250Z 16006KT 14/M06 A3027 RMK A01 T01421057  RH  025%=      5-min Rain = 0
KPD1 132251Z 14009KT 14/M06 A3027 RMK A01 T01441056  RH  024%=      5-min Rain = 0
KPD1 132252Z 14009KT 15/M06 A3027 RMK A01 T01461056  RH  024%=      5-min Rain = 0
KPD1 132253Z 15005KT 15/M06 A3027 RMK A01 T01461057  RH  024%=      5-min Rain = 0
KPD1 132254Z 16007KT 15/M06 A3027 RMK A01 T01451058  RH  024%=      5-min Rain = 0
KPD1 132255Z 14006KT 14/M06 A3027 RMK A01 T01441058  RH  024%=      5-min Rain = 0
KPD1 132256Z 14009KT 14/M06 A3027 RMK A01 T01431059  RH  024%=      5-min Rain = 0
KPD1 132257Z 15010KT 14/M06 A3027 RMK A01 T01411059  RH  025%=      5-min Rain = 0
KPD1 132258Z 15009KT 14/M06 A3027 RMK A01 T01391059  RH  025%=      5-min Rain = 0
KPD1 132259Z 16009KT 14/M06 A3027 RMK A01 T01381059  RH  025%=      5-min Rain = 0
KPD1 132300Z 16010KT 14/M06 A3027 RMK A01 T01381058  RH  025%=      5-min Rain = 0
KPD1 132301Z 15010KT 14/M06 A3027 RMK A01 T01371059  RH  025%=      5-min Rain = 0
KPD1 132302Z 15009KT 14/M06 A3027 RMK A01 T01371058  RH  025%=      5-min Rain = 0
KPD1 132303Z 15009KT 14/M06 A3027 RMK A01 T01381058  RH  025%=      5-min Rain = 0
KPD1 132304Z 15006KT 14/M06 A3027 RMK A01 T01391058  RH  025%=      5-min Rain = 0
KPD1 132305Z 16006KT 14/M06 A3027 RMK A01 T01391058  RH  025%=      5-min Rain = 0
KPD1 132306Z 14005KT 14/M06 A3027 RMK A01 T01391057  RH  025%=      5-min Rain = 0
KPD1 132307Z 16008KT 14/M06 A3027 RMK A01 T01391057  RH  025%=      5-min Rain = 0
KPD1 132308Z 17006G11KT 14/M06 A3027 RMK A01 T01391057  RH  025%=      5-min Rain = 0
KPD1 132309Z 14007KT 14/M06 A3027 RMK A01 T01411056  RH  025%=      5-min Rain = 0
KPD1 132310Z 14008KT 14/M06 A3027 RMK A01 T01401057  RH  025%=      5-min Rain = 0
KPD1 132311Z 15008KT 14/M06 A3027 RMK A01 T01401058  RH  025%=      5-min Rain = 0
KPD1 132312Z 15008KT 14/M06 A3027 RMK A01 T01391058  RH  025%=      5-min Rain = 0
KPD1 132313Z 14007KT 14/M06 A3027 RMK A01 T01391058  RH  025%=      5-min Rain = 0
KPD1 132314Z 14008KT 14/M06 A3027 RMK A01 T01381058  RH  025%=      5-min Rain = 0
KPD1 132315Z 14007KT 14/M06 A3027 RMK A01 T01371059  RH  025%=      5-min Rain = 0
KPD1 132316Z 15008KT 14/M06 A3027 RMK A01 T01351059  RH  025%=      5-min Rain = 0
KPD1 132317Z 14008KT 14/M06 A3027 RMK A01 T01351059  RH  025%=      5-min Rain = 0
KPD1 132318Z 14006KT 13/M06 A3027 RMK A01 T01341060  RH  026%=      5-min Rain = 0
KPD1 132319Z 13004KT 13/M06 A3027 RMK A01 T01331060  RH  026%=      5-min Rain = 0
KPD1 132320Z 13004KT 13/M06 A3027 RMK A01 T01331060  RH  026%=      5-min Rain = 0
KPD1 132321Z 15005KT 13/M06 A3027 RMK A01 T01331060  RH  026%=      5-min Rain = 0
KPD1 132322Z 15008KT 13/M06 A3027 RMK A01 T01331059  RH  026%=      5-min Rain = 0
KPD1 132323Z 14009G14KT 13/M06 A3027 RMK A01 T01331059  RH  026%=      5-min Rain = 0
KPD1 132324Z 14006KT 13/M06 A3027 RMK A01 T01341059  RH  026%=      5-min Rain = 0
KPD1 132325Z 15006KT 14/M06 A3027 RMK A01 T01351058  RH  026%=      5-min Rain = 0
KPD1 132326Z 15008KT 14/M06 A3027 RMK A01 T01361058  RH  025%=      5-min Rain = 0
KPD1 132327Z 14009KT 14/M06 A3027 RMK A01 T01381058  RH  025%=      5-min Rain = 0
KPD1 132328Z 15008KT 14/M06 A3027 RMK A01 T01381058  RH  025%=      5-min Rain = 0
KPD1 132329Z 13007KT 14/M06 A3027 RMK A01 T01381058  RH  025%=      5-min Rain = 0
KPD1 132330Z 14008KT 14/M06 A3027 RMK A01 T01371059  RH  025%=      5-min Rain = 0
KPD1 132331Z 14007KT 14/M06 A3027 RMK A01 T01361059  RH  025%=      5-min Rain = 0
KPD1 132332Z 14007KT 14/M06 A3027 RMK A01 T01351059  RH  025%=      5-min Rain = 0
KPD1 132333Z 13005KT 14/M06 A3027 RMK A01 T01351059  RH  026%=      5-min Rain = 0
KPD1 132334Z 13005KT 14/M06 A3027 RMK A01 T01351058  RH  026%=      5-min Rain = 0
KPD1 132335Z 15006KT 14/M06 A3027 RMK A01 T01351058  RH  026%=      5-min Rain = 0
KPD1 132336Z 15007KT 14/M06 A3027 RMK A01 T01361058  RH  026%=      5-min Rain = 0
KPD1 132337Z 13007KT 14/M06 A3027 RMK A01 T01361057  RH  026%=      5-min Rain = 0
KPD1 132338Z 13007KT 14/M06 A3027 RMK A01 T01361058  RH  026%=      5-min Rain = 0
KPD1 132339Z 14006KT 14/M06 A3027 RMK A01 T01351059  RH  026%=      5-min Rain = 0
KPD1 132340Z 14006KT 14/M06 A3027 RMK A01 T01351058  RH  026%=      5-min Rain = 0
KPD1 132341Z 15006KT 14/M06 A3027 RMK A01 T01361058  RH  026%=      5-min Rain = 0
KPD1 132342Z 16008KT 14/M06 A3027 RMK A01 T01371057  RH  025%=      5-min Rain = 0
KPD1 132343Z 16009KT 14/M06 A3027 RMK A01 T01381057  RH  025%=      5-min Rain = 0
KPD1 132344Z 15008KT 14/M06 A3027 RMK A01 T01381058  RH  025%=      5-min Rain = 0
KPD1 132345Z 16008KT 14/M06 A3027 RMK A01 T01371058  RH  025%=      5-min Rain = 0
KPD1 132346Z 16009KT 14/M06 A3027 RMK A01 T01371058  RH  025%=      5-min Rain = 0
KPD1 132347Z 16009KT 14/M06 A3027 RMK A01 T01361059  RH  025%=      5-min Rain = 0
KPD1 132348Z 16008KT 13/M06 A3027 RMK A01 T01341059  RH  026%=      5-min Rain = 0
KPD1 132349Z 15007KT 13/M06 A3027 RMK A01 T01321060  RH  026%=      5-min Rain = 0
KPD1 132350Z 16008KT 13/M06 A3027 RMK A01 T01311060  RH  026%=      5-min Rain = 0
KPD1 132351Z 16009KT 13/M06 A3027 RMK A01 T01301059  RH  026%=      5-min Rain = 0
KPD1 132352Z 16009KT 13/M06 A3027 RMK A01 T01291059  RH  026%=      5-min Rain = 0
KPD1 132353Z 16007KT 13/M06 A3027 RMK A01 T01281059  RH  027%=      5-min Rain = 0
KPD1 132354Z 16008KT 13/M06 A3027 RMK A01 T01271059  RH  027%=      5-min Rain = 0
KPD1 132355Z 16008KT 13/M06 A3027 RMK A01 T01271059  RH  027%=      5-min Rain = 0
KPD1 132356Z 16008KT 13/M06 A3027 RMK A01 T01261059  RH  027%=      5-min Rain = 0
KPD1 132357Z 17008KT 13/M06 A3027 RMK A01 T01261059  RH  027%=      5-min Rain = 0
KPD1 132358Z 16008KT 13/M06 A3027 RMK A01 T01251059  RH  027%=      5-min Rain = 0
KPD1 132359Z 15008KT 13/M06 A3027 RMK A01 T01251059  RH  027%=      5-min Rain = 0
KPD1 140000Z 16006KT 13/M06 A3027 RMK A01 T01251059  RH  027%=      5-min Rain = 0
KPD1 140001Z 15007KT 12/M06 A3027 RMK A01 T01241059  RH  027%=      5-min Rain = 0
KPD1 140002Z 16005KT 12/M06 A3027 RMK A01 T01241059  RH  027%=      5-min Rain = 0
KPD1 140003Z 15005KT 12/M06 A3027 RMK A01 T01231059  RH  028%=      5-min Rain = 0
KPD1 140004Z 16007KT 12/M06 A3027 RMK A01 T01221059  RH  028%=      5-min Rain = 0
KPD1 140005Z 16007KT 12/M06 A3027 RMK A01 T01221059  RH  028%=      5-min Rain = 0
KPD1 140006Z 16007KT 12/M06 A3027 RMK A01 T01221059  RH  028%=      5-min Rain = 0
KPD1 140007Z 16007KT 12/M06 A3027 RMK A01 T01221058  RH  028%=      5-min Rain = 0
KPD1 140008Z 16007KT 12/M06 A3027 RMK A01 T01221058  RH  028%=      5-min Rain = 0
KPD1 140009Z 15006KT 12/M06 A3027 RMK A01 T01221059  RH  028%=      5-min Rain = 0
KPD1 140010Z 15007KT 12/M06 A3027 RMK A01 T01221059  RH  028%=      5-min Rain = 0
KPD1 140011Z 16008KT 12/M06 A3027 RMK A01 T01221058  RH  028%=      5-min Rain = 0
KPD1 140012Z 15009KT 12/M06 A3027 RMK A01 T01221058  RH  028%=      5-min Rain = 0
KPD1 140013Z 15008KT 12/M06 A3027 RMK A01 T01211059  RH  028%=      5-min Rain = 0
KPD1 140014Z 14008KT 12/M06 A3027 RMK A01 T01211059  RH  028%=      5-min Rain = 0
KPD1 140015Z 13010KT 12/M06 A3027 RMK A01 T01211059  RH  028%=      5-min Rain = 0
KPD1 140016Z 15007KT 12/M06 A3027 RMK A01 T01211059  RH  028%=      5-min Rain = 0
KPD1 140017Z 14008KT 12/M06 A3027 RMK A01 T01211059  RH  028%=      5-min Rain = 0
KPD1 140018Z 14009KT 12/M06 A3027 RMK A01 T01211060  RH  028%=      5-min Rain = 0
KPD1 140019Z 15008G13KT 12/M06 A3027 RMK A01 T01211059  RH  028%=      5-min Rain = 0
KPD1 140020Z 15010KT 12/M06 A3027 RMK A01 T01201060  RH  028%=      5-min Rain = 0
KPD1 140021Z 15009KT 12/M06 A3027 RMK A01 T01201059  RH  028%=      5-min Rain = 0
KPD1 140022Z 15009KT 12/M06 A3027 RMK A01 T01201060  RH  028%=      5-min Rain = 0
KPD1 140023Z 15009KT 12/M06 A3027 RMK A01 T01201060  RH  028%=      5-min Rain = 0
KPD1 140024Z 15008KT 12/M06 A3027 RMK A01 T01191060  RH  028%=      5-min Rain = 0
KPD1 140025Z 15008KT 12/M06 A3027 RMK A01 T01191060  RH  028%=      5-min Rain = 0
KPD1 140026Z 14009KT 12/M06 A3027 RMK A01 T01191060  RH  028%=      5-min Rain = 0
KPD1 140027Z 15007KT 12/M06 A3027 RMK A01 T01191060  RH  028%=      5-min Rain = 0
KPD1 140028Z 15004KT 12/M06 A3027 RMK A01 T01181060  RH  028%=      5-min Rain = 0
KPD1 140029Z 15004KT 12/M06 A3027 RMK A01 T01181060  RH  028%=      5-min Rain = 0
KPD1 140030Z 15006KT 12/M06 A3027 RMK A01 T01181060  RH  028%=      5-min Rain = 0
KPD1 140031Z 15006G12KT 12/M06 A3027 RMK A01 T01171061  RH  028%=      5-min Rain = 0
KPD1 140032Z 15006KT 12/M06 A3027 RMK A01 T01161060  RH  028%=      5-min Rain = 0
KPD1 140033Z 15005KT 12/M06 A3027 RMK A01 T01161061  RH  028%=      5-min Rain = 0
KPD1 140034Z 16008KT 12/M06 A3027 RMK A01 T01151061  RH  029%=      5-min Rain = 0
KPD1 140035Z 15008KT 12/M06 A3027 RMK A01 T01151061  RH  029%=      5-min Rain = 0
KPD1 140036Z 16009KT 12/M06 A3027 RMK A01 T01161060  RH  029%=      5-min Rain = 0
KPD1 140037Z 15009KT 12/M06 A3027 RMK A01 T01161061  RH  029%=      5-min Rain = 0
KPD1 140038Z 15006KT 12/M06 A3027 RMK A01 T01161061  RH  029%=      5-min Rain = 0
KPD1 140039Z 15006KT 12/M06 A3027 RMK A01 T01161061  RH  029%=      5-min Rain = 0
KPD1 140040Z 15007KT 12/M06 A3027 RMK A01 T01151061  RH  029%=      5-min Rain = 0
KPD1 140041Z 15009KT 12/M06 A3027 RMK A01 T01151061  RH  029%=      5-min Rain = 0
KPD1 140042Z 14008G13KT 11/M06 A3027 RMK A01 T01141061  RH  029%=      5-min Rain = 0
KPD1 140043Z 15006KT 11/M06 A3027 RMK A01 T01141061  RH  029%=      5-min Rain = 0
KPD1 140044Z 15007KT 11/M06 A3027 RMK A01 T01141061  RH  029%=      5-min Rain = 0
KPD1 140045Z 14007KT 11/M06 A3027 RMK A01 T01141061  RH  029%=      5-min Rain = 0
KPD1 140046Z 15008KT 11/M06 A3027 RMK A01 T01141060  RH  029%=      5-min Rain = 0
KPD1 140047Z 15008KT 11/M06 A3027 RMK A01 T01141061  RH  029%=      5-min Rain = 0
KPD1 140048Z 14008KT 11/M06 A3027 RMK A01 T01141060  RH  029%=      5-min Rain = 0
KPD1 140049Z 15007KT 11/M06 A3027 RMK A01 T01131061  RH  029%=      5-min Rain = 0
KPD1 140050Z 14006KT 11/M06 A3027 RMK A01 T01131061  RH  029%=      5-min Rain = 0
KPD1 140051Z 14006KT 11/M06 A3027 RMK A01 T01121061  RH  029%=      5-min Rain = 0
KPD1 140052Z 15006KT 11/M06 A3027 RMK A01 T01121061  RH  029%=      5-min Rain = 0
KPD1 140053Z 14007KT 11/M06 A3028 RMK A01 T01111061  RH  029%=      5-min Rain = 0
KPD1 140054Z 14006KT 11/M06 A3028 RMK A01 T01111061  RH  029%=      5-min Rain = 0
KPD1 140055Z 14005KT 11/M06 A3028 RMK A01 T01111061  RH  029%=      5-min Rain = 0
KPD1 140056Z 15008KT 11/M06 A3028 RMK A01 T01111061  RH  029%=      5-min Rain = 0
KPD1 140057Z 15008KT 11/M06 A3028 RMK A01 T01111061  RH  029%=      5-min Rain = 0
KPD1 140058Z 15005KT 11/M06 A3028 RMK A01 T01111061  RH  029%=      5-min Rain = 0
KPD1 140059Z 16005KT 11/M06 A3028 RMK A01 T01111061  RH  029%=      5-min Rain = 0
KPD1 140100Z 15005KT 11/M06 A3028 RMK A01 T01101061  RH  029%=      5-min Rain = 0
KPD1 140101Z 15004KT 11/M06 A3028 RMK A01 T01091061  RH  030%=      5-min Rain = 0
KPD1 140102Z 14008KT 11/M06 A3027 RMK A01 T01091061  RH  030%=      5-min Rain = 0
KPD1 140103Z 14006KT 11/M06 A3028 RMK A01 T01091061  RH  030%=      5-min Rain = 0
KPD1 140104Z 14005KT 11/M06 A3027 RMK A01 T01091061  RH  030%=      5-min Rain = 0
KPD1 140105Z 15005KT 11/M06 A3028 RMK A01 T01081061  RH  030%=      5-min Rain = 0
KPD1 140106Z 14007KT 11/M06 A3028 RMK A01 T01071062  RH  030%=      5-min Rain = 0
KPD1 140107Z 14007KT 11/M06 A3028 RMK A01 T01071062  RH  030%=      5-min Rain = 0
KPD1 140108Z 15006KT 11/M06 A3028 RMK A01 T01071062  RH  030%=      5-min Rain = 0
KPD1 140109Z 15008KT 11/M06 A3028 RMK A01 T01071062  RH  030%=      5-min Rain = 0
KPD1 140110Z 14006KT 11/M06 A3028 RMK A01 T01071061  RH  030%=      5-min Rain = 0
KPD1 140111Z 14005KT 11/M06 A3028 RMK A01 T01081062  RH  030%=      5-min Rain = 0
KPD1 140112Z 15004KT 11/M06 A3028 RMK A01 T01081062  RH  030%=      5-min Rain = 0
KPD1 140113Z 15006KT 11/M06 A3027 RMK A01 T01071062  RH  030%=      5-min Rain = 0
KPD1 140114Z 13005KT 11/M06 A3027 RMK A01 T01061063  RH  030%=      5-min Rain = 0
KPD1 140115Z 14006KT 11/M06 A3027 RMK A01 T01061063  RH  030%=      5-min Rain = 0
KPD1 140116Z 15006KT 11/M06 A3027 RMK A01 T01051063  RH  030%=      5-min Rain = 0
KPD1 140117Z 15006KT 11/M06 A3028 RMK A01 T01051063  RH  030%=      5-min Rain = 0
KPD1 140118Z 15006KT 11/M06 A3028 RMK A01 T01051062  RH  030%=      5-min Rain = 0
KPD1 140119Z 15006KT 11/M06 A3028 RMK A01 T01051063  RH  030%=      5-min Rain = 0
KPD1 140120Z 15004KT 11/M06 A3028 RMK A01 T01051063  RH  030%=      5-min Rain = 0
KPD1 140121Z 15005KT 11/M06 A3028 RMK A01 T01051063  RH  030%=      5-min Rain = 0
KPD1 140122Z 15005KT 11/M06 A3028 RMK A01 T01051063  RH  030%=      5-min Rain = 0
KPD1 140123Z 16004KT 10/M06 A3028 RMK A01 T01041063  RH  030%=      5-min Rain = 0
KPD1 140124Z 15006KT 10/M06 A3028 RMK A01 T01031063  RH  030%=      5-min Rain = 0
KPD1 140125Z 14006KT 10/M06 A3028 RMK A01 T01031063  RH  030%=      5-min Rain = 0
KPD1 140126Z 15007KT 10/M06 A3028 RMK A01 T01031063  RH  031%=      5-min Rain = 0
KPD1 140127Z 15005KT 10/M06 A3028 RMK A01 T01031063  RH  031%=      5-min Rain = 0
KPD1 140128Z 15006KT 10/M06 A3028 RMK A01 T01031063  RH  031%=      5-min Rain = 0
KPD1 140129Z 14006KT 10/M06 A3028 RMK A01 T01031063  RH  031%=      5-min Rain = 0
KPD1 140130Z 14006KT 10/M06 A3028 RMK A01 T01031063  RH  031%=      5-min Rain = 0
KPD1 140131Z 15006KT 10/M06 A3028 RMK A01 T01031063  RH  031%=      5-min Rain = 0
KPD1 140132Z 15005KT 10/M06 A3028 RMK A01 T01031063  RH  031%=      5-min Rain = 0
KPD1 140133Z 15005KT 10/M06 A3028 RMK A01 T01021064  RH  031%=      5-min Rain = 0
KPD1 140134Z 15006KT 10/M06 A3028 RMK A01 T01021064  RH  031%=      5-min Rain = 0
KPD1 140135Z 16007KT 10/M06 A3028 RMK A01 T01011064  RH  031%=      5-min Rain = 0
KPD1 140136Z 15007KT 10/M06 A3028 RMK A01 T01001064  RH  031%=      5-min Rain = 0
KPD1 140137Z 15006KT 10/M06 A3028 RMK A01 T01011064  RH  031%=      5-min Rain = 0
KPD1 140138Z 15005KT 10/M06 A3028 RMK A01 T01011064  RH  031%=      5-min Rain = 0
KPD1 140139Z 15003KT 10/M06 A3028 RMK A01 T01011064  RH  031%=      5-min Rain = 0
KPD1 140140Z 15004KT 10/M06 A3028 RMK A01 T01001064  RH  031%=      5-min Rain = 0
KPD1 140141Z 15005KT 10/M07 A3028 RMK A01 T00991065  RH  031%=      5-min Rain = 0
KPD1 140142Z 14006KT 10/M07 A3028 RMK A01 T00991065  RH  031%=      5-min Rain = 0
KPD1 140143Z 14006G11KT 10/M07 A3028 RMK A01 T00991065  RH  031%=      5-min Rain = 0
KPD1 140144Z 15006KT 10/M06 A3028 RMK A01 T00991064  RH  031%=      5-min Rain = 0
KPD1 140145Z 15005KT 10/M06 A3028 RMK A01 T00991064  RH  031%=      5-min Rain = 0
KPD1 140146Z 16005KT 10/M06 A3028 RMK A01 T01001064  RH  031%=      5-min Rain = 0
KPD1 140147Z 16005KT 10/M06 A3028 RMK A01 T01001064  RH  031%=      5-min Rain = 0
KPD1 140148Z 16007KT 10/M07 A3028 RMK A01 T00991065  RH  031%=      5-min Rain = 0
KPD1 140149Z 14008KT 10/M06 A3028 RMK A01 T00991064  RH  031%=      5-min Rain = 0
KPD1 140150Z 15007KT 10/M06 A3028 RMK A01 T00991064  RH  031%=      5-min Rain = 0
KPD1 140151Z 15007KT 10/M07 A3028 RMK A01 T00991065  RH  031%=      5-min Rain = 0
KPD1 140152Z 15007KT 10/M06 A3028 RMK A01 T00991064  RH  031%=      5-min Rain = 0
KPD1 140153Z 14007KT 10/M07 A3028 RMK A01 T00991065  RH  031%=      5-min Rain = 0
KPD1 140154Z 16005KT 10/M06 A3028 RMK A01 T00991064  RH  031%=      5-min Rain = 0
KPD1 140155Z 15006KT 10/M07 A3028 RMK A01 T00981065  RH  031%=      5-min Rain = 0
KPD1 140156Z 15007KT 10/M07 A3028 RMK A01 T00971066  RH  031%=      5-min Rain = 0
KPD1 140157Z 15007KT 10/M07 A3028 RMK A01 T00971066  RH  031%=      5-min Rain = 0
KPD1 140158Z 15005KT 10/M07 A3028 RMK A01 T00971065  RH  031%=      5-min Rain = 0
KPD1 140159Z 15006KT 10/M07 A3028 RMK A01 T00961065  RH  031%=      5-min Rain = 0
KPD1 140200Z 15006KT 10/M07 A3028 RMK A01 T00961065  RH  031%=      5-min Rain = 0
KPD1 140201Z 14006KT 10/M07 A3028 RMK A01 T00961066  RH  031%=      5-min Rain = 0
KPD1 140202Z 14005KT 10/M07 A3028 RMK A01 T00961066  RH  031%=      5-min Rain = 0
KPD1 140203Z 14007KT 10/M07 A3028 RMK A01 T00961066  RH  031%=      5-min Rain = 0
KPD1 140204Z 15005KT 10/M07 A3028 RMK A01 T00961066  RH  031%=      5-min Rain = 0
KPD1 140205Z 15005KT 10/M07 A3029 RMK A01 T00961066  RH  031%=      5-min Rain = 0
KPD1 140206Z 15006KT 10/M07 A3029 RMK A01 T00951066  RH  031%=      5-min Rain = 0
KPD1 140207Z 14006KT 10/M07 A3029 RMK A01 T00951066  RH  031%=      5-min Rain = 0
KPD1 140208Z 16007KT 10/M07 A3029 RMK A01 T00951066  RH  032%=      5-min Rain = 0
KPD1 140209Z 15007KT 10/M07 A3029 RMK A01 T00951066  RH  032%=      5-min Rain = 0
KPD1 140210Z 15006KT 09/M07 A3029 RMK A01 T00941066  RH  031%=      5-min Rain = 0
KPD1 140211Z 15006KT 09/M07 A3029 RMK A01 T00941067  RH  032%=      5-min Rain = 0
KPD1 140212Z 16006KT 09/M07 A3029 RMK A01 T00931067  RH  032%=      5-min Rain = 0
KPD1 140213Z 16005KT 09/M07 A3029 RMK A01 T00931067  RH  032%=      5-min Rain = 0
KPD1 140214Z 16005KT 09/M07 A3029 RMK A01 T00931067  RH  032%=      5-min Rain = 0
KPD1 140215Z 16005KT 09/M07 A3029 RMK A01 T00921067  RH  032%=      5-min Rain = 0
KPD1 140216Z 16004KT 09/M07 A3029 RMK A01 T00911067  RH  032%=      5-min Rain = 0
KPD1 140217Z 15007KT 09/M07 A3029 RMK A01 T00911067  RH  032%=      5-min Rain = 0
KPD1 140218Z 16005KT 09/M07 A3029 RMK A01 T00911067  RH  032%=      5-min Rain = 0
KPD1 140219Z 15005KT 09/M07 A3029 RMK A01 T00911067  RH  032%=      5-min Rain = 0
KPD1 140220Z 14005KT 09/M07 A3029 RMK A01 T00911067  RH  032%=      5-min Rain = 0
KPD1 140221Z 14004KT 09/M07 A3029 RMK A01 T00911067  RH  032%=      5-min Rain = 0
KPD1 140222Z 14009KT 09/M07 A303 RMK A01 T00911067  RH  032%=      5-min Rain = 0
KPD1 140223Z 14009G16KT 09/M07 A303 RMK A01 T00911068  RH  032%=      5-min Rain = 0
KPD1 140224Z 14011G16KT 09/M07 A303 RMK A01 T00911070  RH  031%=      5-min Rain = 0
KPD1 140225Z 15011KT 09/M07 A303 RMK A01 T00911071  RH  031%=      5-min Rain = 0
KPD1 140226Z 15008G13KT 09/M07 A303 RMK A01 T00911072  RH  031%=      5-min Rain = 0
KPD1 140227Z 16009KT 09/M07 A303 RMK A01 T00901073  RH  031%=      5-min Rain = 0
KPD1 140228Z 15011G16KT 09/M08 A303 RMK A01 T00901075  RH  030%=      5-min Rain = 0
KPD1 140229Z 15011G16KT 09/M08 A303 RMK A01 T00891076  RH  030%=      5-min Rain = 0
KPD1 140230Z 15010KT 09/M08 A303 RMK A01 T00891076  RH  030%=      5-min Rain = 0
KPD1 140231Z 14009KT 09/M08 A303 RMK A01 T00881076  RH  030%=      5-min Rain = 0
KPD1 140232Z 16007KT 09/M08 A303 RMK A01 T00881076  RH  031%=      5-min Rain = 0
KPD1 140233Z 15009G14KT 09/M08 A303 RMK A01 T00871077  RH  031%=      5-min Rain = 0
KPD1 140234Z 15007KT 09/M08 A303 RMK A01 T00861077  RH  031%=      5-min Rain = 0
KPD1 140235Z 15009KT 09/M08 A303 RMK A01 T00861078  RH  031%=      5-min Rain = 0
KPD1 140236Z 16009KT 09/M08 A303 RMK A01 T00851078  RH  031%=      5-min Rain = 0
KPD1 140237Z 15009KT 09/M08 A303 RMK A01 T00851078  RH  031%=      5-min Rain = 0
KPD1 140238Z 13007KT 09/M08 A303 RMK A01 T00851078  RH  031%=      5-min Rain = 0
KPD1 140239Z 16007KT 08/M08 A303 RMK A01 T00841078  RH  031%=      5-min Rain = 0
KPD1 140240Z 15008KT 08/M08 A303 RMK A01 T00831079  RH  031%=      5-min Rain = 0
KPD1 140241Z 14009KT 08/M08 A303 RMK A01 T00831079  RH  031%=      5-min Rain = 0
KPD1 140242Z 14009KT 08/M08 A303 RMK A01 T00831079  RH  031%=      5-min Rain = 0
KPD1 140243Z 15007KT 08/M08 A303 RMK A01 T00821079  RH  031%=      5-min Rain = 0
KPD1 140244Z 15006KT 08/M08 A303 RMK A01 T00821079  RH  031%=      5-min Rain = 0
KPD1 140245Z 16006KT 08/M08 A303 RMK A01 T00821079  RH  031%=      5-min Rain = 0
KPD1 140246Z 14006KT 08/M08 A3031 RMK A01 T00811079  RH  031%=      5-min Rain = 0
KPD1 140247Z 14008KT 08/M08 A3031 RMK A01 T00811079  RH  031%=      5-min Rain = 0
KPD1 140248Z 15006KT 08/M08 A3031 RMK A01 T00801080  RH  031%=      5-min Rain = 0
KPD1 140249Z 13006KT 08/M08 A3031 RMK A01 T00801079  RH  031%=      5-min Rain = 0
KPD1 140250Z 14008KT 08/M08 A3031 RMK A01 T00791080  RH  031%=      5-min Rain = 0
KPD1 140251Z 14009KT 08/M08 A3031 RMK A01 T00791080  RH  031%=      5-min Rain = 0
KPD1 140252Z 15007KT 08/M08 A3031 RMK A01 T00791080  RH  032%=      5-min Rain = 0
KPD1 140253Z 14007G12KT 08/M08 A3031 RMK A01 T00801080  RH  031%=      5-min Rain = 0
KPD1 140254Z 14006KT 08/M08 A3031 RMK A01 T00791080  RH  031%=      5-min Rain = 0
KPD1 140255Z 14010KT 08/M08 A3031 RMK A01 T00791080  RH  032%=      5-min Rain = 0
KPD1 140256Z 15008KT 08/M08 A3031 RMK A01 T00791079  RH  032%=      5-min Rain = 0
KPD1 140257Z 15007KT 08/M08 A3031 RMK A01 T00791080  RH  031%=      5-min Rain = 0
KPD1 140258Z 15006KT 08/M08 A3031 RMK A01 T00791080  RH  031%=      5-min Rain = 0
KPD1 140259Z 15007G12KT 08/M08 A3031 RMK A01 T00801079  RH  031%=      5-min Rain = 0
KPD1 140300Z 15008KT 08/M08 A3031 RMK A01 T00791080  RH  032%=      5-min Rain = 0
KPD1 140301Z 14010KT 08/M08 A3031 RMK A01 T00791080  RH  032%=      5-min Rain = 0
KPD1 140302Z 14013KT 08/M08 A3031 RMK A01 T00791079  RH  032%=      5-min Rain = 0
KPD1 140303Z 14007KT 08/M08 A3031 RMK A01 T00791079  RH  032%=      5-min Rain = 0
KPD1 140304Z 14009KT 08/M08 A3031 RMK A01 T00791079  RH  032%=      5-min Rain = 0
KPD1 140305Z 14008KT 08/M08 A3031 RMK A01 T00791080  RH  032%=      5-min Rain = 0
KPD1 140306Z 14007KT 08/M08 A3031 RMK A01 T00791080  RH  032%=      5-min Rain = 0
KPD1 140307Z 15006KT 08/M08 A3031 RMK A01 T00791080  RH  032%=      5-min Rain = 0
KPD1 140308Z 14005KT 08/M08 A3031 RMK A01 T00781080  RH  032%=      5-min Rain = 0
KPD1 140309Z 15004KT 08/M08 A3031 RMK A01 T00771080  RH  032%=      5-min Rain = 0
KPD1 140310Z 15005KT 08/M08 A3031 RMK A01 T00771080  RH  032%=      5-min Rain = 0
KPD1 140311Z 15008KT 08/M08 A3031 RMK A01 T00761080  RH  032%=      5-min Rain = 0
KPD1 140312Z 15007KT 08/M08 A3031 RMK A01 T00761080  RH  032%=      5-min Rain = 0
KPD1 140313Z 15008KT 08/M08 A3031 RMK A01 T00761080  RH  032%=      5-min Rain = 0
KPD1 140314Z 16008KT 08/M08 A3031 RMK A01 T00761080  RH  032%=      5-min Rain = 0
KPD1 140315Z 15009KT 08/M08 A3031 RMK A01 T00761080  RH  032%=      5-min Rain = 0
KPD1 140316Z 15008KT 08/M08 A3031 RMK A01 T00761080  RH  032%=      5-min Rain = 0
KPD1 140317Z 15009KT 08/M08 A3031 RMK A01 T00761079  RH  032%=      5-min Rain = 0
KPD1 140318Z 15008KT 08/M08 A3031 RMK A01 T00761079  RH  032%=      5-min Rain = 0
KPD1 140319Z 15008KT 08/M08 A3031 RMK A01 T00761079  RH  032%=      5-min Rain = 0
KPD1 140320Z 15008KT 08/M08 A3031 RMK A01 T00761079  RH  032%=      5-min Rain = 0
KPD1 140321Z 16009KT 08/M08 A3031 RMK A01 T00761079  RH  032%=      5-min Rain = 0
KPD1 140322Z 14008KT 08/M08 A3031 RMK A01 T00761079  RH  032%=      5-min Rain = 0
KPD1 140323Z 14009KT 08/M08 A3031 RMK A01 T00761079  RH  032%=      5-min Rain = 0
KPD1 140324Z 14006KT 08/M08 A3031 RMK A01 T00761079  RH  032%=      5-min Rain = 0
KPD1 140325Z 15008KT 08/M08 A3031 RMK A01 T00761079  RH  032%=      5-min Rain = 0
KPD1 140326Z 15009KT 08/M08 A3031 RMK A01 T00761079  RH  032%=      5-min Rain = 0
KPD1 140327Z 16008KT 08/M08 A3031 RMK A01 T00761079  RH  032%=      5-min Rain = 0
KPD1 140328Z 15008G14KT 08/M08 A3031 RMK A01 T00761079  RH  032%=      5-min Rain = 0
KPD1 140329Z 15008KT 08/M08 A3031 RMK A01 T00761079  RH  032%=      5-min Rain = 0
KPD1 140330Z 16008KT 08/M08 A3031 RMK A01 T00761079  RH  032%=      5-min Rain = 0
KPD1 140331Z 15006KT 08/M08 A3031 RMK A01 T00761079  RH  032%=      5-min Rain = 0
KPD1 140332Z 16008KT 08/M08 A3031 RMK A01 T00761079  RH  032%=      5-min Rain = 0
KPD1 140333Z 15008KT 08/M08 A3031 RMK A01 T00761079  RH  032%=      5-min Rain = 0
KPD1 140334Z 15008KT 08/M08 A3031 RMK A01 T00751079  RH  033%=      5-min Rain = 0
KPD1 140335Z 16009KT 08/M08 A3031 RMK A01 T00761079  RH  033%=      5-min Rain = 0
KPD1 140336Z 15007KT 08/M08 A3032 RMK A01 T00761078  RH  033%=      5-min Rain = 0
KPD1 140337Z 16008KT 08/M08 A3032 RMK A01 T00761079  RH  033%=      5-min Rain = 0
KPD1 140338Z 15008KT 08/M08 A3032 RMK A01 T00751079  RH  033%=      5-min Rain = 0
KPD1 140339Z 16008KT 08/M08 A3031 RMK A01 T00761078  RH  033%=      5-min Rain = 0
KPD1 140340Z 15006KT 08/M08 A3031 RMK A01 T00751079  RH  033%=      5-min Rain = 0
KPD1 140341Z 15010KT 08/M08 A3031 RMK A01 T00751079  RH  033%=      5-min Rain = 0
KPD1 140342Z 16011KT 08/M08 A3031 RMK A01 T00751079  RH  033%=      5-min Rain = 0
KPD1 140343Z 15007KT 08/M08 A3032 RMK A01 T00751079  RH  033%=      5-min Rain = 0
KPD1 140344Z 16008KT 08/M08 A3032 RMK A01 T00751078  RH  033%=      5-min Rain = 0
KPD1 140345Z 14010G15KT 08/M08 A3031 RMK A01 T00751079  RH  033%=      5-min Rain = 0
KPD1 140346Z 15009KT 08/M08 A3031 RMK A01 T00751079  RH  033%=      5-min Rain = 0
KPD1 140347Z 15007KT 08/M08 A3032 RMK A01 T00751078  RH  033%=      5-min Rain = 0
KPD1 140348Z 15008KT 08/M08 A3032 RMK A01 T00751078  RH  033%=      5-min Rain = 0
KPD1 140349Z 15011KT 08/M08 A3032 RMK A01 T00751078  RH  033%=      5-min Rain = 0
KPD1 140350Z 15008G13KT 07/M08 A3032 RMK A01 T00741078  RH  033%=      5-min Rain = 0
KPD1 140351Z 15010KT 07/M08 A3032 RMK A01 T00741078  RH  033%=      5-min Rain = 0
KPD1 140352Z 16009KT 07/M08 A3032 RMK A01 T00741079  RH  033%=      5-min Rain = 0
KPD1 140353Z 15010KT 07/M08 A3032 RMK A01 T00741078  RH  033%=      5-min Rain = 0
KPD1 140354Z 15009KT 07/M08 A3032 RMK A01 T00741078  RH  033%=      5-min Rain = 0
KPD1 140355Z 15007KT 07/M08 A3032 RMK A01 T00741078  RH  033%=      5-min Rain = 0
KPD1 140356Z 16009KT 07/M08 A3032 RMK A01 T00741078  RH  033%=      5-min Rain = 0
KPD1 140357Z 16010KT 07/M08 A3032 RMK A01 T00741079  RH  033%=      5-min Rain = 0
KPD1 140358Z 15010KT 07/M08 A3032 RMK A01 T00731079  RH  033%=      5-min Rain = 0
KPD1 140359Z 16008KT 07/M08 A3032 RMK A01 T00731079  RH  033%=      5-min Rain = 0
KPD1 140400Z 16009KT 07/M08 A3032 RMK A01 T00741078  RH  033%=      5-min Rain = 0
KPD1 140401Z 15009KT 07/M08 A3032 RMK A01 T00731078  RH  033%=      5-min Rain = 0
KPD1 140402Z 15008KT 07/M08 A3032 RMK A01 T00731079  RH  033%=      5-min Rain = 0
KPD1 140403Z 15008KT 07/M08 A3031 RMK A01 T00731079  RH  033%=      5-min Rain = 0
KPD1 140404Z 16009KT 07/M08 A3031 RMK A01 T00731079  RH  033%=      5-min Rain = 0
KPD1 140405Z 15008KT 07/M08 A3031 RMK A01 T00731078  RH  033%=      5-min Rain = 0
KPD1 140406Z 16008KT 07/M08 A3031 RMK A01 T00731078  RH  033%=      5-min Rain = 0
KPD1 140407Z 15009KT 07/M08 A3031 RMK A01 T00731078  RH  033%=      5-min Rain = 0
KPD1 140408Z 16008KT 07/M08 A3031 RMK A01 T00731078  RH  033%=      5-min Rain = 0
KPD1 140409Z 16009KT 07/M08 A3031 RMK A01 T00721078  RH  033%=      5-min Rain = 0
KPD1 140410Z 16007KT 07/M08 A3031 RMK A01 T00721078  RH  033%=      5-min Rain = 0
KPD1 140411Z 15009KT 07/M08 A3031 RMK A01 T00721078  RH  033%=      5-min Rain = 0
KPD1 140412Z 16009KT 07/M08 A3031 RMK A01 T00731078  RH  033%=      5-min Rain = 0
KPD1 140413Z 15010KT 07/M08 A3031 RMK A01 T00731078  RH  033%=      5-min Rain = 0
KPD1 140414Z 15009KT 07/M08 A3031 RMK A01 T00731078  RH  033%=      5-min Rain = 0
KPD1 140415Z 15009KT 07/M08 A3031 RMK A01 T00731078  RH  033%=      5-min Rain = 0
KPD1 140416Z 15010KT 07/M08 A3031 RMK A01 T00731078  RH  033%=      5-min Rain = 0
KPD1 140417Z 16008KT 07/M08 A3031 RMK A01 T00731078  RH  033%=      5-min Rain = 0
KPD1 140418Z 15008KT 07/M08 A3031 RMK A01 T00731078  RH  033%=      5-min Rain = 0
KPD1 140419Z 15009KT 07/M08 A3032 RMK A01 T00731078  RH  033%=      5-min Rain = 0
KPD1 140420Z 15008KT 07/M08 A3032 RMK A01 T00721078  RH  033%=      5-min Rain = 0
KPD1 140421Z 15008KT 07/M08 A3032 RMK A01 T00721078  RH  034%=      5-min Rain = 0
KPD1 140422Z 16009KT 07/M08 A3032 RMK A01 T00721078  RH  034%=      5-min Rain = 0
KPD1 140423Z 16008KT 07/M08 A3032 RMK A01 T00711078  RH  034%=      5-min Rain = 0
KPD1 140424Z 16008KT 07/M08 A3032 RMK A01 T00711078  RH  034%=      5-min Rain = 0
KPD1 140425Z 16007KT 07/M08 A3031 RMK A01 T00711078  RH  034%=      5-min Rain = 0
KPD1 140426Z 16007KT 07/M08 A3031 RMK A01 T00711078  RH  034%=      5-min Rain = 0
KPD1 140427Z 16010KT 07/M08 A3031 RMK A01 T00701078  RH  034%=      5-min Rain = 0
KPD1 140428Z 15008KT 07/M08 A3031 RMK A01 T00711077  RH  034%=      5-min Rain = 0
KPD1 140429Z 16007KT 07/M08 A3032 RMK A01 T00701078  RH  034%=      5-min Rain = 0
KPD1 140430Z 16008KT 07/M08 A3032 RMK A01 T00701078  RH  034%=      5-min Rain = 0
KPD1 140431Z 16008KT 07/M08 A3032 RMK A01 T00701078  RH  034%=      5-min Rain = 0
KPD1 140432Z 16008KT 07/M08 A3032 RMK A01 T00701078  RH  034%=      5-min Rain = 0
KPD1 140433Z 16007KT 07/M08 A3032 RMK A01 T00691078  RH  034%=      5-min Rain = 0
KPD1 140434Z 16007KT 07/M08 A3032 RMK A01 T00691078  RH  034%=      5-min Rain = 0
KPD1 140435Z 15008KT 07/M08 A3032 RMK A01 T00691078  RH  034%=      5-min Rain = 0
KPD1 140436Z 15010KT 07/M08 A3031 RMK A01 T00681078  RH  035%=      5-min Rain = 0
KPD1 140437Z 15009KT 07/M08 A3031 RMK A01 T00681078  RH  035%=      5-min Rain = 0
KPD1 140438Z 16008KT 07/M08 A3031 RMK A01 T00681077  RH  035%=      5-min Rain = 0
KPD1 140439Z 16009KT 07/M08 A3031 RMK A01 T00681077  RH  035%=      5-min Rain = 0
KPD1 140440Z 16009KT 07/M08 A3031 RMK A01 T00681077  RH  035%=      5-min Rain = 0
KPD1 140441Z 15009KT 07/M08 A3031 RMK A01 T00681077  RH  035%=      5-min Rain = 0
KPD1 140442Z 16009KT 07/M08 A3031 RMK A01 T00671077  RH  035%=      5-min Rain = 0
KPD1 140443Z 16009KT 07/M08 A3031 RMK A01 T00681077  RH  035%=      5-min Rain = 0
KPD1 140444Z 16008KT 07/M08 A3031 RMK A01 T00671077  RH  035%=      5-min Rain = 0
KPD1 140445Z 16009KT 07/M08 A3031 RMK A01 T00671077  RH  035%=      5-min Rain = 0
KPD1 140446Z 16008KT 07/M08 A3031 RMK A01 T00661077  RH  035%=      5-min Rain = 0
KPD1 140447Z 16007KT 07/M08 A3031 RMK A01 T00661077  RH  035%=      5-min Rain = 0
KPD1 140448Z 16009KT 07/M08 A3031 RMK A01 T00661077  RH  035%=      5-min Rain = 0
KPD1 140449Z 16010KT 07/M08 A3031 RMK A01 T00661077  RH  035%=      5-min Rain = 0
KPD1 140450Z 16010KT 07/M08 A3031 RMK A01 T00661077  RH  035%=      5-min Rain = 0
KPD1 140451Z 16008KT 07/M08 A3031 RMK A01 T00661077  RH  035%=      5-min Rain = 0
KPD1 140452Z 16009KT 07/M08 A3031 RMK A01 T00661077  RH  035%=      5-min Rain = 0
KPD1 140453Z 16010KT 07/M08 A3031 RMK A01 T00661077  RH  035%=      5-min Rain = 0
KPD1 140454Z 16009KT 07/M08 A3031 RMK A01 T00661077  RH  035%=      5-min Rain = 0
KPD1 140455Z 17007KT 07/M08 A3031 RMK A01 T00661077  RH  035%=      5-min Rain = 0
KPD1 140456Z 16006KT 07/M08 A3031 RMK A01 T00661076  RH  035%=      5-min Rain = 0
KPD1 140457Z 16009KT 07/M08 A3031 RMK A01 T00651077  RH  035%=      5-min Rain = 0
KPD1 140458Z 16008KT 07/M08 A3031 RMK A01 T00651077  RH  035%=      5-min Rain = 0
KPD1 140459Z 15008KT 07/M08 A3031 RMK A01 T00651077  RH  035%=      5-min Rain = 0
KPD1 140500Z 16007KT 07/M08 A3031 RMK A01 T00651077  RH  035%=      5-min Rain = 0

Page generated in 0.0435 seconds.